Time,TemperatureF,DewpointF,PressureIn,WindDirection,WindDirectionDegrees,WindSpeedMPH,WindSpeedGustMPH,Humidity,HourlyPrecipIn,Conditions,Clouds,dailyrainin,SoftwareType,DateUTC
2013-05-19 00:01:00,65.3,65.0,28.99,NW,315,0.0,0.0,99,0.09,RA,SKC,0.00,WeatherDisplay:10.37,2013-05-19 04:01:00,
2013-05-19 00:06:00,65.3,65.0,28.99,NW,315,0.0,0.0,99,0.09,RA,SKC,0.00,WeatherDisplay:10.37,2013-05-19 04:06:00,
2013-05-19 00:10:00,66.9,66.6,29.00,East,90,0.0,0.0,99,0.00,CLR,SKC,0.40,WeatherDisplay:10.37,2013-05-19 04:10:00,
2013-05-19 00:11:00,65.1,64.8,28.99,North,0,0.0,0.0,99,0.08,CLR,SKC,0.00,WeatherDisplay:10.37,2013-05-19 04:11:00,
2013-05-19 00:12:00,65.1,64.8,28.99,North,0,0.0,0.0,99,0.08,CLR,SKC,0.00,WeatherDisplay:10.37,2013-05-19 04:12:00,
2013-05-19 00:16:00,65.3,65.0,28.99,SW,225,0.0,0.0,99,0.07,CLR,SKC,0.00,WeatherDisplay:10.37,2013-05-19 04:16:00,
2013-05-19 00:17:00,65.3,65.0,28.99,SW,225,0.0,0.0,99,0.07,CLR,SKC,0.00,WeatherDisplay:10.37,2013-05-19 04:17:00,
2013-05-19 00:20:00,67.1,66.8,28.99,East,86,0.0,0.0,99,0.00,CLR,SKC,0.40,WeatherDisplay:10.37,2013-05-19 04:20:00,
2013-05-19 00:21:00,65.3,65.0,28.99,North,0,1.1,0.0,99,0.06,RA,SKC,0.02,WeatherDisplay:10.37,2013-05-19 04:21:00,
2013-05-19 00:22:00,65.3,65.0,28.99,North,0,1.1,0.0,99,0.06,RA,SKC,0.02,WeatherDisplay:10.37,2013-05-19 04:22:00,
2013-05-19 00:27:00,65.3,65.0,28.99,NW,315,1.1,0.0,99,0.09,RA,SKC,0.05,WeatherDisplay:10.37,2013-05-19 04:27:00,
2013-05-19 00:28:00,65.3,65.0,28.99,NE,45,0.0,0.0,99,0.07,RA,SKC,0.05,WeatherDisplay:10.37,2013-05-19 04:28:00,
2013-05-19 00:30:00,67.1,66.8,28.99,NE,45,0.0,0.0,99,0.00,CLR,SKC,0.40,WeatherDisplay:10.37,2013-05-19 04:30:00,
2013-05-19 00:32:00,65.5,65.2,28.99,NW,315,0.0,0.0,99,0.08,RA,SKC,0.07,WeatherDisplay:10.37,2013-05-19 04:32:00,
2013-05-19 00:34:00,65.3,65.0,28.99,North,0,0.0,0.0,99,0.08,RA,SKC,0.08,WeatherDisplay:10.37,2013-05-19 04:34:00,
2013-05-19 00:37:00,65.3,65.0,28.99,West,270,1.1,0.0,99,0.11,RA,SKC,0.11,WeatherDisplay:10.37,2013-05-19 04:37:00,
2013-05-19 00:39:00,65.3,65.0,28.99,North,0,1.1,0.0,99,0.13,RA,SKC,0.14,WeatherDisplay:10.37,2013-05-19 04:39:00,
2013-05-19 00:40:00,67.1,66.8,28.99,NE,45,0.0,0.0,99,0.00,CLR,SKC,0.40,WeatherDisplay:10.37,2013-05-19 04:40:00,
2013-05-19 00:42:00,65.3,65.0,28.99,North,0,0.0,0.0,99,0.17,RA,SKC,0.15,WeatherDisplay:10.37,2013-05-19 04:42:00,
2013-05-19 00:44:00,65.5,65.2,28.99,NW,315,0.0,0.0,99,0.19,RA,SKC,0.19,WeatherDisplay:10.37,2013-05-19 04:44:00,
2013-05-19 00:47:00,65.3,65.0,28.99,East,90,0.0,0.0,99,0.21,RA,SKC,0.21,WeatherDisplay:10.37,2013-05-19 04:47:00,
2013-05-19 00:49:00,65.3,65.0,28.99,North,0,1.1,0.0,99,0.22,RA,SKC,0.22,WeatherDisplay:10.37,2013-05-19 04:49:00,
2013-05-19 00:50:00,68.0,67.7,28.98,NE,51,0.0,0.0,99,0.00,CLR,SKC,0.40,WeatherDisplay:10.37,2013-05-19 04:50:00,
2013-05-19 00:52:00,65.3,65.0,28.98,North,0,1.1,0.0,99,0.25,RA,SKC,0.25,WeatherDisplay:10.37,2013-05-19 04:52:00,
2013-05-19 00:55:00,65.3,65.0,28.98,WNW,292,1.1,0.0,99,0.25,RA,SKC,0.26,WeatherDisplay:10.37,2013-05-19 04:55:00,
2013-05-19 00:57:00,65.1,64.8,28.98,South,180,1.1,0.0,99,0.27,RA,SKC,0.27,WeatherDisplay:10.37,2013-05-19 04:57:00,
2013-05-19 00:58:00,65.1,64.8,28.98,South,180,1.1,0.0,99,0.27,RA,SKC,0.27,WeatherDisplay:10.37,2013-05-19 04:58:00,
2013-05-19 01:00:00,65.1,64.8,28.98,South,180,0.0,0.0,99,0.28,RA,SKC,0.30,WeatherDisplay:10.37,2013-05-19 05:00:00,
2013-05-19 01:02:00,65.1,64.8,28.98,NE,45,0.0,0.0,99,0.30,RA,SKC,0.31,WeatherDisplay:10.37,2013-05-19 05:02:00,
2013-05-19 01:03:00,65.1,64.8,28.98,NE,45,0.0,0.0,99,0.30,RA,SKC,0.31,WeatherDisplay:10.37,2013-05-19 05:03:00,
2013-05-19 01:05:00,65.1,64.8,28.98,NW,315,0.0,0.0,99,0.31,RA,SKC,0.32,WeatherDisplay:10.37,2013-05-19 05:05:00,
2013-05-19 01:08:00,65.1,64.8,28.98,NE,45,0.0,0.0,99,0.32,RA,SKC,0.32,WeatherDisplay:10.37,2013-05-19 05:08:00,
2013-05-19 01:10:00,68.0,67.7,28.98,SE,135,0.0,0.0,99,0.00,CLR,SKC,0.40,WeatherDisplay:10.37,2013-05-19 05:10:00,
2013-05-19 01:11:00,65.1,64.8,28.98,North,0,0.0,0.0,99,0.33,RA,SKC,0.33,WeatherDisplay:10.37,2013-05-19 05:11:00,
2013-05-19 01:13:00,65.1,64.8,28.98,West,270,1.1,0.0,99,0.33,RA,SKC,0.33,WeatherDisplay:10.37,2013-05-19 05:13:00,
2013-05-19 01:14:00,65.1,64.8,28.98,West,270,1.1,0.0,99,0.33,RA,SKC,0.33,WeatherDisplay:10.37,2013-05-19 05:14:00,
2013-05-19 01:16:00,65.1,64.8,28.98,West,270,1.1,0.0,99,0.34,RA,SKC,0.34,WeatherDisplay:10.37,2013-05-19 05:16:00,
2013-05-19 01:18:00,65.1,64.8,28.98,South,180,1.1,0.0,99,0.34,RA,SKC,0.34,WeatherDisplay:10.37,2013-05-19 05:18:00,
2013-05-19 01:19:00,65.1,64.8,28.98,North,0,1.1,0.0,99,0.34,RA,SKC,0.34,WeatherDisplay:10.37,2013-05-19 05:19:00,
2013-05-19 01:20:00,68.0,68.0,28.97,SE,130,0.0,0.0,100,0.00,CLR,SKC,0.40,WeatherDisplay:10.37,2013-05-19 05:20:00,
2013-05-19 01:21:00,65.1,64.8,28.98,North,0,1.1,0.0,99,0.33,RA,SKC,0.34,WeatherDisplay:10.37,2013-05-19 05:21:00,
2013-05-19 01:23:00,65.1,64.8,28.98,NE,45,1.1,0.0,99,0.32,RA,SKC,0.34,WeatherDisplay:10.37,2013-05-19 05:23:00,
2013-05-19 01:24:00,65.1,64.8,28.98,North,0,1.1,0.0,99,0.33,RA,SKC,0.35,WeatherDisplay:10.37,2013-05-19 05:24:00,
2013-05-19 01:26:00,65.1,64.8,28.98,North,0,1.1,0.0,99,0.32,RA,SKC,0.35,WeatherDisplay:10.37,2013-05-19 05:26:00,
2013-05-19 01:28:00,65.1,64.8,28.98,North,0,1.1,0.0,99,0.31,RA,SKC,0.35,WeatherDisplay:10.37,2013-05-19 05:28:00,
2013-05-19 01:29:00,65.1,64.8,28.98,NW,315,1.1,0.0,99,0.31,RA,SKC,0.37,WeatherDisplay:10.37,2013-05-19 05:29:00,
2013-05-19 01:30:00,68.0,68.0,28.97,North,0,0.0,0.0,100,0.00,CLR,SKC,0.40,WeatherDisplay:10.37,2013-05-19 05:30:00,
2013-05-19 01:31:00,65.1,64.8,28.98,SE,135,0.0,0.0,99,0.31,RA,SKC,0.37,WeatherDisplay:10.37,2013-05-19 05:31:00,
2013-05-19 01:33:00,65.1,64.8,28.98,NE,45,0.0,0.0,99,0.30,RA,SKC,0.37,WeatherDisplay:10.37,2013-05-19 05:33:00,
2013-05-19 01:34:00,65.1,64.8,28.97,SE,135,0.0,0.0,99,0.28,RA,SKC,0.37,WeatherDisplay:10.37,2013-05-19 05:34:00,
2013-05-19 01:35:00,65.1,64.8,28.97,SE,135,1.1,0.0,99,0.27,RA,SKC,0.37,WeatherDisplay:10.37,2013-05-19 05:35:00,
2013-05-19 01:37:00,64.9,64.7,28.98,SW,225,1.1,0.0,99,0.27,RA,SKC,0.37,WeatherDisplay:10.37,2013-05-19 05:37:00,
2013-05-19 01:38:00,64.9,64.7,28.98,South,180,1.1,0.0,99,0.26,RA,SKC,0.38,WeatherDisplay:10.37,2013-05-19 05:38:00,
2013-05-19 01:39:00,64.9,64.7,28.98,South,180,1.1,0.0,99,0.26,RA,SKC,0.38,WeatherDisplay:10.37,2013-05-19 05:39:00,
2013-05-19 01:40:00,64.9,64.7,28.98,South,180,1.1,0.0,99,0.26,RA,SKC,0.38,WeatherDisplay:10.37,2013-05-19 05:40:00,
2013-05-19 01:42:00,64.9,64.7,28.98,NE,45,0.0,0.0,99,0.24,RA,SKC,0.38,WeatherDisplay:10.37,2013-05-19 05:42:00,
2013-05-19 01:43:00,64.9,64.7,28.98,NE,45,0.0,0.0,99,0.22,RA,SKC,0.38,WeatherDisplay:10.37,2013-05-19 05:43:00,
2013-05-19 01:44:00,64.9,64.7,28.98,NE,45,0.0,0.0,99,0.22,RA,SKC,0.38,WeatherDisplay:10.37,2013-05-19 05:44:00,
2013-05-19 01:45:00,64.9,64.7,28.98,NE,45,1.1,0.0,99,0.19,RA,SKC,0.38,WeatherDisplay:10.37,2013-05-19 05:45:00,
2013-05-19 01:47:00,64.9,64.7,28.97,NE,45,0.0,0.0,99,0.18,RA,SKC,0.39,WeatherDisplay:10.37,2013-05-19 05:47:00,
2013-05-19 01:49:00,64.9,64.7,28.98,NE,45,0.0,0.0,99,0.18,RA,SKC,0.39,WeatherDisplay:10.37,2013-05-19 05:49:00,
2013-05-19 01:50:00,64.9,64.7,28.97,East,90,0.0,0.0,99,0.17,RA,SKC,0.39,WeatherDisplay:10.37,2013-05-19 05:50:00,
2013-05-19 01:51:00,64.9,64.7,28.98,South,180,0.0,0.0,99,0.17,RA,SKC,0.39,WeatherDisplay:10.37,2013-05-19 05:51:00,
2013-05-19 01:52:00,64.9,64.7,28.97,North,0,0.0,0.0,99,0.15,RA,SKC,0.39,WeatherDisplay:10.37,2013-05-19 05:52:00,
2013-05-19 01:54:00,64.9,64.7,28.97,North,0,0.7,0.0,99,0.14,RA,SKC,0.39,WeatherDisplay:10.37,2013-05-19 05:54:00,
2013-05-19 01:55:00,64.9,64.7,28.97,South,180,1.1,0.0,99,0.14,RA,SKC,0.39,WeatherDisplay:10.37,2013-05-19 05:55:00,
2013-05-19 01:56:00,64.9,64.7,28.97,South,180,1.1,0.0,99,0.14,RA,SKC,0.39,WeatherDisplay:10.37,2013-05-19 05:56:00,
2013-05-19 01:57:00,64.9,64.7,28.97,South,180,1.1,0.0,99,0.13,,SKC,0.39,WeatherDisplay:10.37,2013-05-19 05:57:00,
2013-05-19 01:59:00,64.9,64.7,28.97,NW,315,1.1,0.0,99,0.12,CLR,SKC,0.39,WeatherDisplay:10.37,2013-05-19 05:59:00,
2013-05-19 02:00:00,64.9,64.7,28.97,NW,315,1.1,0.0,99,0.12,CLR,SKC,0.39,WeatherDisplay:10.37,2013-05-19 06:00:00,
2013-05-19 02:01:00,64.9,64.7,28.97,North,0,0.0,0.0,99,0.11,CLR,SKC,0.39,WeatherDisplay:10.37,2013-05-19 06:01:00,
2013-05-19 02:03:00,64.9,64.7,28.97,SE,135,0.0,0.0,99,0.09,CLR,SKC,0.39,WeatherDisplay:10.37,2013-05-19 06:03:00,
2013-05-19 02:05:00,64.9,64.7,28.97,SE,135,0.0,0.0,99,0.08,CLR,SKC,0.39,WeatherDisplay:10.37,2013-05-19 06:05:00,
2013-05-19 02:06:00,64.9,64.7,28.97,North,0,0.0,0.0,99,0.08,CLR,SKC,0.39,WeatherDisplay:10.37,2013-05-19 06:06:00,
2013-05-19 02:08:00,64.9,64.7,28.97,South,180,0.0,0.0,99,0.07,CLR,SKC,0.39,WeatherDisplay:10.37,2013-05-19 06:08:00,
2013-05-19 02:10:00,64.9,64.7,28.97,East,98,0.0,0.0,99,0.00,CLR,SKC,0.39,WeatherDisplay:10.37,2013-05-19 06:10:00,
2013-05-19 02:11:00,64.9,64.7,28.97,West,270,0.0,0.0,99,0.06,CLR,SKC,0.39,WeatherDisplay:10.37,2013-05-19 06:11:00,
2013-05-19 02:14:00,64.9,64.7,28.97,West,270,0.0,0.0,99,0.06,CLR,SKC,0.39,WeatherDisplay:10.37,2013-05-19 06:14:00,
2013-05-19 02:15:00,64.9,64.7,28.97,SE,135,0.0,0.0,99,0.06,CLR,SKC,0.39,WeatherDisplay:10.37,2013-05-19 06:15:00,
2013-05-19 02:16:00,64.9,64.7,28.97,SE,135,0.0,0.0,99,0.06,CLR,SKC,0.39,WeatherDisplay:10.37,2013-05-19 06:16:00,
2013-05-19 02:19:00,64.9,64.7,28.97,South,180,1.1,0.0,99,0.05,CLR,SKC,0.39,WeatherDisplay:10.37,2013-05-19 06:19:00,
2013-05-19 02:20:00,64.9,64.7,28.96,East,90,1.1,0.0,99,0.05,CLR,SKC,0.39,WeatherDisplay:10.37,2013-05-19 06:20:00,
2013-05-19 02:21:00,64.9,64.7,28.96,East,90,1.1,0.0,99,0.05,CLR,SKC,0.39,WeatherDisplay:10.37,2013-05-19 06:21:00,
2013-05-19 02:22:00,64.9,64.7,28.96,East,90,1.1,0.0,99,0.05,CLR,SKC,0.39,WeatherDisplay:10.37,2013-05-19 06:22:00,
2013-05-19 02:24:00,64.9,64.7,28.97,South,180,1.1,0.0,99,0.05,CLR,SKC,0.39,WeatherDisplay:10.37,2013-05-19 06:24:00,
2013-05-19 02:26:00,64.9,64.7,28.97,North,0,0.0,0.0,99,0.04,CLR,SKC,0.39,WeatherDisplay:10.37,2013-05-19 06:26:00,
2013-05-19 02:27:00,64.9,64.7,28.96,NE,45,0.0,0.0,99,0.04,CLR,SKC,0.39,WeatherDisplay:10.37,2013-05-19 06:27:00,
2013-05-19 02:29:00,64.9,64.7,28.96,North,0,1.1,0.0,99,0.04,CLR,SKC,0.39,WeatherDisplay:10.37,2013-05-19 06:29:00,
2013-05-19 02:30:00,70.2,67.7,28.96,SE,135,0.0,0.0,92,0.00,CLR,SKC,0.40,WeatherDisplay:10.37,2013-05-19 06:30:00,
2013-05-19 02:31:00,64.9,64.7,28.97,South,180,1.1,0.0,99,0.02,CLR,SKC,0.39,WeatherDisplay:10.37,2013-05-19 06:31:00,
2013-05-19 02:32:00,64.9,64.7,28.96,South,180,1.1,0.0,99,0.02,CLR,SKC,0.39,WeatherDisplay:10.37,2013-05-19 06:32:00,
2013-05-19 02:35:00,64.9,64.7,28.96,North,0,1.1,0.0,99,0.02,CLR,SKC,0.39,WeatherDisplay:10.37,2013-05-19 06:35:00,
2013-05-19 02:36:00,64.9,64.7,28.96,North,0,1.1,0.0,99,0.02,CLR,SKC,0.39,WeatherDisplay:10.37,2013-05-19 06:36:00,
2013-05-19 02:37:00,64.9,64.7,28.97,West,270,0.0,0.0,99,0.02,CLR,SKC,0.39,WeatherDisplay:10.37,2013-05-19 06:37:00,
2013-05-19 02:40:00,64.9,64.7,28.96,North,0,0.0,0.0,99,0.01,CLR,SKC,0.39,WeatherDisplay:10.37,2013-05-19 06:40:00,
2013-05-19 02:41:00,64.9,64.7,28.96,North,0,1.6,0.0,99,0.01,CLR,SKC,0.39,WeatherDisplay:10.37,2013-05-19 06:41:00,
2013-05-19 02:43:00,64.9,64.7,28.96,SW,225,1.1,0.0,99,0.01,CLR,SKC,0.39,WeatherDisplay:10.37,2013-05-19 06:43:00,
2013-05-19 02:45:00,64.9,64.7,28.97,North,0,1.1,0.0,99,0.01,CLR,SKC,0.39,WeatherDisplay:10.37,2013-05-19 06:45:00,
2013-05-19 02:46:00,64.9,64.7,28.97,North,0,1.1,0.0,99,0.01,CLR,SKC,0.39,WeatherDisplay:10.37,2013-05-19 06:46:00,
2013-05-19 02:48:00,64.9,64.7,28.97,South,180,0.0,0.0,99,0.00,CLR,SKC,0.39,WeatherDisplay:10.37,2013-05-19 06:48:00,
2013-05-19 02:50:00,69.1,67.3,28.94,SE,130,0.0,0.0,94,0.01,CLR,SKC,0.41,WeatherDisplay:10.37,2013-05-19 06:50:00,
2013-05-19 02:51:00,64.9,64.7,28.96,South,180,0.0,0.0,99,0.00,CLR,SKC,0.39,WeatherDisplay:10.37,2013-05-19 06:51:00,
2013-05-19 02:52:00,64.9,64.7,28.96,South,180,0.0,0.0,99,0.00,CLR,SKC,0.39,WeatherDisplay:10.37,2013-05-19 06:52:00,
2013-05-19 02:53:00,64.9,64.7,28.96,NE,45,0.0,0.0,99,0.00,CLR,SKC,0.39,WeatherDisplay:10.37,2013-05-19 06:53:00,
2013-05-19 02:56:00,64.9,64.7,28.96,South,180,0.0,0.0,99,0.00,CLR,SKC,0.39,WeatherDisplay:10.37,2013-05-19 06:56:00,
2013-05-19 02:57:00,64.9,64.7,28.96,South,180,0.0,0.0,99,0.00,CLR,SKC,0.39,WeatherDisplay:10.37,2013-05-19 06:57:00,
2013-05-19 02:59:00,64.9,64.7,28.96,East,90,1.1,0.0,99,0.00,CLR,SKC,0.39,WeatherDisplay:10.37,2013-05-19 06:59:00,
2013-05-19 03:00:00,69.1,67.3,28.94,North,0,0.0,0.0,94,0.00,CLR,SKC,0.41,WeatherDisplay:10.37,2013-05-19 07:00:00,
2013-05-19 03:01:00,64.9,64.7,28.96,North,0,1.1,0.0,99,0.00,CLR,SKC,0.39,WeatherDisplay:10.37,2013-05-19 07:01:00,
2013-05-19 03:02:00,64.9,64.7,28.96,North,0,1.1,0.0,99,0.00,CLR,SKC,0.39,WeatherDisplay:10.37,2013-05-19 07:02:00,
2013-05-19 03:04:00,64.9,64.7,28.96,East,90,1.1,0.0,99,0.00,CLR,SKC,0.39,WeatherDisplay:10.37,2013-05-19 07:04:00,
2013-05-19 03:07:00,64.8,64.5,28.96,WNW,292,1.1,0.0,99,0.00,CLR,SKC,0.39,WeatherDisplay:10.37,2013-05-19 07:07:00,
2013-05-19 03:08:00,64.8,64.5,28.96,WNW,292,1.6,0.0,99,0.00,CLR,SKC,0.39,WeatherDisplay:10.37,2013-05-19 07:08:00,
2013-05-19 03:09:00,64.8,64.5,28.96,WNW,292,1.1,0.0,99,0.00,CLR,SKC,0.39,WeatherDisplay:10.37,2013-05-19 07:09:00,
2013-05-19 03:10:00,69.1,67.3,28.94,North,0,0.0,0.0,94,0.00,CLR,SKC,0.41,WeatherDisplay:10.37,2013-05-19 07:10:00,
2013-05-19 03:12:00,64.8,64.5,28.96,West,270,1.1,0.0,99,0.00,CLR,SKC,0.39,WeatherDisplay:10.37,2013-05-19 07:12:00,
2013-05-19 03:13:00,64.8,64.5,28.96,SE,135,1.1,0.0,99,0.00,CLR,SKC,0.39,WeatherDisplay:10.37,2013-05-19 07:13:00,
2013-05-19 03:14:00,64.8,64.5,28.96,SE,135,1.1,0.0,99,0.00,CLR,SKC,0.39,WeatherDisplay:10.37,2013-05-19 07:14:00,
2013-05-19 03:17:00,64.8,64.5,28.96,North,0,0.0,0.0,99,0.00,CLR,SKC,0.39,WeatherDisplay:10.37,2013-05-19 07:17:00,
2013-05-19 03:18:00,64.8,64.5,28.96,South,180,0.0,0.0,99,0.00,CLR,SKC,0.39,WeatherDisplay:10.37,2013-05-19 07:18:00,
2013-05-19 03:19:00,64.8,64.5,28.96,SE,135,0.0,0.0,99,0.00,CLR,SKC,0.39,WeatherDisplay:10.37,2013-05-19 07:19:00,
2013-05-19 03:20:00,74.8,71.4,28.92,North,0,0.0,0.0,89,0.00,CLR,SKC,0.41,WeatherDisplay:10.37,2013-05-19 07:20:00,
2013-05-19 03:22:00,64.8,64.5,28.95,South,180,1.1,0.0,99,0.00,CLR,SKC,0.39,WeatherDisplay:10.37,2013-05-19 07:22:00,
2013-05-19 03:23:00,64.8,64.5,28.95,South,180,1.1,0.0,99,0.00,CLR,SKC,0.39,WeatherDisplay:10.37,2013-05-19 07:23:00,
2013-05-19 03:24:00,64.8,64.5,28.96,SW,225,1.1,0.0,99,0.00,CLR,SKC,0.39,WeatherDisplay:10.37,2013-05-19 07:24:00,
2013-05-19 03:27:00,64.8,64.5,28.95,East,90,1.1,0.0,99,0.00,CLR,SKC,0.39,WeatherDisplay:10.37,2013-05-19 07:27:00,
2013-05-19 03:28:00,64.8,64.5,28.96,East,90,1.1,0.0,99,0.00,CLR,SKC,0.39,WeatherDisplay:10.37,2013-05-19 07:28:00,
2013-05-19 03:29:00,64.8,64.5,28.96,NW,315,0.0,0.0,99,0.00,CLR,SKC,0.39,WeatherDisplay:10.37,2013-05-19 07:29:00,
2013-05-19 03:30:00,74.8,71.4,28.92,South,180,0.0,0.0,89,0.00,CLR,SKC,0.41,WeatherDisplay:10.37,2013-05-19 07:30:00,
2013-05-19 03:32:00,64.8,64.5,28.96,SE,135,0.0,0.0,99,0.00,CLR,SKC,0.39,WeatherDisplay:10.37,2013-05-19 07:32:00,
2013-05-19 03:33:00,64.8,64.5,28.95,East,90,0.0,0.0,99,0.00,CLR,SKC,0.39,WeatherDisplay:10.37,2013-05-19 07:33:00,
2013-05-19 03:34:00,64.8,64.5,28.95,NW,315,1.1,0.0,99,0.00,CLR,SKC,0.39,WeatherDisplay:10.37,2013-05-19 07:34:00,
2013-05-19 03:37:00,64.8,64.5,28.95,NE,45,1.1,0.0,99,0.00,CLR,SKC,0.39,WeatherDisplay:10.37,2013-05-19 07:37:00,
2013-05-19 03:38:00,64.8,64.5,28.95,SW,225,1.1,0.0,99,0.00,CLR,SKC,0.39,WeatherDisplay:10.37,2013-05-19 07:38:00,
2013-05-19 03:39:00,64.8,64.5,28.95,SW,225,1.1,0.0,99,0.00,CLR,SKC,0.39,WeatherDisplay:10.37,2013-05-19 07:39:00,
2013-05-19 03:40:00,74.8,71.4,28.92,South,180,0.0,0.0,89,0.00,CLR,SKC,0.41,WeatherDisplay:10.37,2013-05-19 07:40:00,
2013-05-19 03:42:00,64.8,64.5,28.95,NW,315,0.0,0.0,99,0.00,CLR,SKC,0.39,WeatherDisplay:10.37,2013-05-19 07:42:00,
2013-05-19 03:43:00,64.8,64.5,28.95,South,180,0.0,0.0,99,0.00,CLR,SKC,0.39,WeatherDisplay:10.37,2013-05-19 07:43:00,
2013-05-19 03:44:00,64.8,64.5,28.95,South,180,0.0,0.0,99,0.00,CLR,SKC,0.39,WeatherDisplay:10.37,2013-05-19 07:44:00,
2013-05-19 03:47:00,64.8,64.5,28.95,SE,135,0.0,0.0,99,0.00,CLR,SKC,0.39,WeatherDisplay:10.37,2013-05-19 07:47:00,
2013-05-19 03:48:00,64.8,64.5,28.95,NW,315,0.0,0.0,99,0.00,CLR,SKC,0.39,WeatherDisplay:10.37,2013-05-19 07:48:00,
2013-05-19 03:49:00,64.8,64.5,28.95,NW,315,0.0,0.0,99,0.00,CLR,SKC,0.39,WeatherDisplay:10.37,2013-05-19 07:49:00,
2013-05-19 03:50:00,78.6,71.6,28.88,South,180,0.0,1.0,79,0.00,CLR,SKC,0.41,WeatherDisplay:10.37,2013-05-19 07:50:00,
2013-05-19 03:52:00,64.8,64.5,28.95,East,90,1.6,0.0,99,0.00,CLR,SKC,0.39,WeatherDisplay:10.37,2013-05-19 07:52:00,
2013-05-19 03:53:00,64.8,64.5,28.95,East,90,1.1,0.0,99,0.00,CLR,SKC,0.39,WeatherDisplay:10.37,2013-05-19 07:53:00,
2013-05-19 03:54:00,64.8,64.5,28.95,North,0,1.1,0.0,99,0.00,CLR,SKC,0.39,WeatherDisplay:10.37,2013-05-19 07:54:00,
2013-05-19 03:57:00,64.8,64.5,28.95,SW,225,0.0,0.0,99,0.00,CLR,SKC,0.39,WeatherDisplay:10.37,2013-05-19 07:57:00,
2013-05-19 03:58:00,64.8,64.5,28.95,North,0,0.0,0.0,99,0.00,CLR,SKC,0.39,WeatherDisplay:10.37,2013-05-19 07:58:00,
2013-05-19 03:59:00,64.8,64.5,28.95,North,0,0.0,0.0,99,0.00,CLR,SKC,0.39,WeatherDisplay:10.37,2013-05-19 07:59:00,
2013-05-19 04:00:00,64.8,64.5,28.95,North,0,0.0,0.0,99,0.00,CLR,SKC,0.39,WeatherDisplay:10.37,2013-05-19 08:00:00,
2013-05-19 04:02:00,64.8,64.5,28.96,SE,135,0.0,0.0,99,0.00,CLR,SKC,0.39,WeatherDisplay:10.37,2013-05-19 08:02:00,
2013-05-19 04:03:00,64.8,64.5,28.96,SE,135,0.0,0.0,99,0.00,CLR,SKC,0.39,WeatherDisplay:10.37,2013-05-19 08:03:00,
2013-05-19 04:04:00,64.8,64.5,28.95,SE,135,0.0,0.0,99,0.00,CLR,SKC,0.39,WeatherDisplay:10.37,2013-05-19 08:04:00,
2013-05-19 04:05:00,64.8,64.5,28.95,SE,135,0.0,0.0,99,0.00,CLR,SKC,0.39,WeatherDisplay:10.37,2013-05-19 08:05:00,
2013-05-19 04:07:00,64.8,64.5,28.96,SE,135,0.0,0.0,99,0.00,CLR,SKC,0.39,WeatherDisplay:10.37,2013-05-19 08:07:00,
2013-05-19 04:08:00,64.8,64.5,28.95,SW,225,0.0,0.0,99,0.00,CLR,SKC,0.39,WeatherDisplay:10.37,2013-05-19 08:08:00,
2013-05-19 04:09:00,64.8,64.5,28.95,SW,225,0.0,0.0,99,0.00,CLR,SKC,0.39,WeatherDisplay:10.37,2013-05-19 08:09:00,
2013-05-19 04:10:00,64.8,64.5,28.96,NW,315,0.0,0.0,99,0.00,CLR,SKC,0.39,WeatherDisplay:10.37,2013-05-19 08:10:00,
2013-05-19 04:13:00,64.8,64.5,28.96,North,0,1.1,0.0,99,0.00,CLR,SKC,0.39,WeatherDisplay:10.37,2013-05-19 08:13:00,
2013-05-19 04:14:00,64.8,64.5,28.96,NW,315,1.1,0.0,99,0.00,CLR,SKC,0.39,WeatherDisplay:10.37,2013-05-19 08:14:00,
2013-05-19 04:15:00,64.8,64.5,28.96,NW,315,1.1,0.0,99,0.00,CLR,SKC,0.39,WeatherDisplay:10.37,2013-05-19 08:15:00,
2013-05-19 04:18:00,64.8,64.5,28.96,NW,315,1.1,0.0,99,0.00,CLR,SKC,0.39,WeatherDisplay:10.37,2013-05-19 08:18:00,
2013-05-19 04:20:00,64.8,64.5,28.96,North,0,1.1,0.0,99,0.00,CLR,SKC,0.39,WeatherDisplay:10.37,2013-05-19 08:20:00,
2013-05-19 04:23:00,64.8,64.5,28.96,North,0,1.1,0.0,99,0.00,CLR,SKC,0.39,WeatherDisplay:10.37,2013-05-19 08:23:00,
2013-05-19 04:25:00,64.8,64.5,28.96,SE,135,1.1,0.0,99,0.00,CLR,SKC,0.39,WeatherDisplay:10.37,2013-05-19 08:25:00,
2013-05-19 04:28:00,64.8,64.5,28.96,South,180,0.0,0.0,99,0.00,CLR,SKC,0.39,WeatherDisplay:10.37,2013-05-19 08:28:00,
2013-05-19 04:29:00,64.8,64.5,28.96,South,180,0.0,0.0,99,0.00,CLR,SKC,0.39,WeatherDisplay:10.37,2013-05-19 08:29:00,
2013-05-19 04:30:00,64.6,64.3,28.96,SE,135,0.0,0.0,99,0.00,CLR,SKC,0.39,WeatherDisplay:10.37,2013-05-19 08:30:00,
2013-05-19 04:31:00,64.6,64.3,28.95,SW,225,0.0,0.0,99,0.00,CLR,SKC,0.39,WeatherDisplay:10.37,2013-05-19 08:31:00,
2013-05-19 04:33:00,64.6,64.3,28.96,NW,315,1.1,0.0,99,0.00,CLR,SKC,0.39,WeatherDisplay:10.37,2013-05-19 08:33:00,
2013-05-19 04:34:00,64.6,64.3,28.96,North,0,1.1,0.0,99,0.00,CLR,SKC,0.39,WeatherDisplay:10.37,2013-05-19 08:34:00,
2013-05-19 04:35:00,64.6,64.3,28.96,NW,315,1.1,0.0,99,0.00,CLR,SKC,0.39,WeatherDisplay:10.37,2013-05-19 08:35:00,
2013-05-19 04:36:00,64.6,64.3,28.96,NW,315,1.1,0.0,99,0.00,CLR,SKC,0.39,WeatherDisplay:10.37,2013-05-19 08:36:00,
2013-05-19 04:38:00,64.6,64.3,28.96,North,0,1.1,0.0,99,0.00,CLR,SKC,0.39,WeatherDisplay:10.37,2013-05-19 08:38:00,
2013-05-19 04:39:00,64.6,64.3,28.96,North,0,1.1,0.0,99,0.00,CLR,SKC,0.39,WeatherDisplay:10.37,2013-05-19 08:39:00,
2013-05-19 04:40:00,64.6,64.3,28.96,North,0,1.1,0.0,99,0.00,CLR,SKC,0.39,WeatherDisplay:10.37,2013-05-19 08:40:00,
2013-05-19 04:41:00,64.6,64.3,28.96,North,0,1.1,0.0,99,0.00,CLR,SKC,0.39,WeatherDisplay:10.37,2013-05-19 08:41:00,
2013-05-19 04:43:00,64.6,64.3,28.96,North,0,1.1,0.0,99,0.00,CLR,SKC,0.39,WeatherDisplay:10.37,2013-05-19 08:43:00,
2013-05-19 04:44:00,64.6,64.3,28.96,North,0,1.1,0.0,99,0.00,CLR,SKC,0.39,WeatherDisplay:10.37,2013-05-19 08:44:00,
2013-05-19 04:46:00,64.6,64.3,28.96,North,0,1.1,0.0,99,0.00,CLR,SKC,0.39,WeatherDisplay:10.37,2013-05-19 08:46:00,
2013-05-19 04:49:00,64.6,64.3,28.96,South,180,0.0,0.0,99,0.00,CLR,SKC,0.39,WeatherDisplay:10.37,2013-05-19 08:49:00,
2013-05-19 04:50:00,73.0,68.6,28.89,North,354,0.0,0.0,86,0.15,CLR,SKC,0.57,WeatherDisplay:10.37,2013-05-19 08:50:00,
2013-05-19 04:51:00,64.6,64.3,28.96,North,0,0.0,0.0,99,0.00,CLR,SKC,0.39,WeatherDisplay:10.37,2013-05-19 08:51:00,
2013-05-19 04:54:00,64.6,64.3,28.96,North,0,0.0,0.0,99,0.00,CLR,SKC,0.39,WeatherDisplay:10.37,2013-05-19 08:54:00,
2013-05-19 04:55:00,64.6,64.3,28.96,North,0,0.0,0.0,99,0.00,CLR,SKC,0.39,WeatherDisplay:10.37,2013-05-19 08:55:00,
2013-05-19 04:56:00,64.6,64.3,28.96,North,0,0.0,0.0,99,0.00,CLR,SKC,0.39,WeatherDisplay:10.37,2013-05-19 08:56:00,
2013-05-19 04:57:00,64.6,64.3,28.96,North,0,0.0,0.0,99,0.00,CLR,SKC,0.39,WeatherDisplay:10.37,2013-05-19 08:57:00,
2013-05-19 04:59:00,64.6,64.3,28.96,North,0,0.0,0.0,99,0.00,CLR,SKC,0.39,WeatherDisplay:10.37,2013-05-19 08:59:00,
2013-05-19 05:00:00,64.6,64.3,28.96,North,0,0.0,0.0,99,0.00,CLR,SKC,0.39,WeatherDisplay:10.37,2013-05-19 09:00:00,
2013-05-19 05:01:00,64.6,64.3,28.96,North,0,0.0,0.0,99,0.00,CLR,SKC,0.39,WeatherDisplay:10.37,2013-05-19 09:01:00,
2013-05-19 05:02:00,64.6,64.3,28.96,North,0,0.0,0.0,99,0.00,CLR,SKC,0.39,WeatherDisplay:10.37,2013-05-19 09:02:00,
2013-05-19 05:05:00,64.6,64.3,28.96,North,0,0.0,0.0,99,0.00,CLR,SKC,0.39,WeatherDisplay:10.37,2013-05-19 09:05:00,
2013-05-19 05:06:00,64.6,64.3,28.96,North,0,0.0,0.0,99,0.00,CLR,SKC,0.39,WeatherDisplay:10.37,2013-05-19 09:06:00,
2013-05-19 05:07:00,64.6,64.3,28.96,North,0,0.0,0.0,99,0.00,CLR,SKC,0.39,WeatherDisplay:10.37,2013-05-19 09:07:00,
2013-05-19 05:10:00,64.6,64.3,28.96,North,0,0.0,0.0,99,0.00,CLR,SKC,0.39,WeatherDisplay:10.37,2013-05-19 09:10:00,
2013-05-19 05:12:00,64.6,64.3,28.96,North,0,0.0,0.0,99,0.00,CLR,SKC,0.39,WeatherDisplay:10.37,2013-05-19 09:12:00,
2013-05-19 05:15:00,64.4,64.1,28.96,North,0,0.0,0.0,99,0.00,CLR,SKC,0.39,WeatherDisplay:10.37,2013-05-19 09:15:00,
2013-05-19 05:17:00,64.4,64.1,28.96,North,0,0.0,0.0,99,0.00,CLR,SKC,0.39,WeatherDisplay:10.37,2013-05-19 09:17:00,
2013-05-19 05:18:00,64.4,64.1,28.96,North,0,0.0,0.0,99,0.00,CLR,SKC,0.39,WeatherDisplay:10.37,2013-05-19 09:18:00,
2013-05-19 05:20:00,64.6,64.3,28.96,North,0,0.0,0.0,99,0.00,CLR,SKC,0.39,WeatherDisplay:10.37,2013-05-19 09:20:00,
2013-05-19 05:22:00,64.4,64.1,28.96,North,0,1.1,0.0,99,0.00,CLR,SKC,0.39,WeatherDisplay:10.37,2013-05-19 09:22:00,
2013-05-19 05:23:00,64.4,64.1,28.96,South,180,1.1,0.0,99,0.00,CLR,SKC,0.39,WeatherDisplay:10.37,2013-05-19 09:23:00,
2013-05-19 05:25:00,64.4,64.1,28.96,South,180,0.0,0.0,99,0.00,CLR,SKC,0.39,WeatherDisplay:10.37,2013-05-19 09:25:00,
2013-05-19 05:27:00,64.4,64.1,28.96,SE,135,0.0,0.0,99,0.00,CLR,SKC,0.39,WeatherDisplay:10.37,2013-05-19 09:27:00,
2013-05-19 05:29:00,64.4,64.1,28.96,SE,135,0.0,0.0,99,0.00,CLR,SKC,0.39,WeatherDisplay:10.37,2013-05-19 09:29:00,
2013-05-19 05:30:00,64.4,64.1,28.95,North,0,1.1,0.0,99,0.00,CLR,SKC,0.39,WeatherDisplay:10.37,2013-05-19 09:30:00,
2013-05-19 05:31:00,64.4,64.1,28.96,NW,315,1.1,0.0,99,0.00,CLR,SKC,0.39,WeatherDisplay:10.37,2013-05-19 09:31:00,
2013-05-19 05:32:00,64.4,64.1,28.96,NE,45,1.1,0.0,99,0.00,CLR,SKC,0.39,WeatherDisplay:10.37,2013-05-19 09:32:00,
2013-05-19 05:33:00,64.4,64.1,28.96,West,270,1.1,0.0,99,0.00,CLR,SKC,0.39,WeatherDisplay:10.37,2013-05-19 09:33:00,
2013-05-19 05:36:00,64.4,64.1,28.96,North,0,1.1,0.0,99,0.00,CLR,SKC,0.39,WeatherDisplay:10.37,2013-05-19 09:36:00,
2013-05-19 05:37:00,64.4,64.1,28.96,North,0,0.0,0.0,99,0.00,CLR,SKC,0.39,WeatherDisplay:10.37,2013-05-19 09:37:00,
2013-05-19 05:39:00,64.4,64.1,28.97,North,0,0.0,0.0,99,0.00,CLR,SKC,0.39,WeatherDisplay:10.37,2013-05-19 09:39:00,
2013-05-19 05:41:00,64.4,64.1,28.97,North,0,0.0,0.0,99,0.00,CLR,SKC,0.39,WeatherDisplay:10.37,2013-05-19 09:41:00,
2013-05-19 05:42:00,64.4,64.1,28.96,West,270,0.0,0.0,99,0.00,CLR,SKC,0.39,WeatherDisplay:10.37,2013-05-19 09:42:00,
2013-05-19 05:43:00,64.4,64.1,28.96,NW,315,0.0,0.0,99,0.00,CLR,SKC,0.39,WeatherDisplay:10.37,2013-05-19 09:43:00,
2013-05-19 05:44:00,64.4,64.1,28.96,NW,315,1.1,0.0,99,0.00,CLR,SKC,0.39,WeatherDisplay:10.37,2013-05-19 09:44:00,
2013-05-19 05:46:00,64.4,64.1,28.96,NW,315,1.1,0.0,99,0.00,CLR,SKC,0.39,WeatherDisplay:10.37,2013-05-19 09:46:00,
2013-05-19 05:47:00,64.4,64.1,28.97,NW,315,1.1,0.0,99,0.00,CLR,SKC,0.39,WeatherDisplay:10.37,2013-05-19 09:47:00,
2013-05-19 05:48:00,64.4,64.1,28.97,East,90,1.1,0.0,99,0.00,CLR,SKC,0.39,WeatherDisplay:10.37,2013-05-19 09:48:00,
2013-05-19 05:49:00,64.4,64.1,28.97,East,90,1.1,0.0,99,0.00,CLR,SKC,0.39,WeatherDisplay:10.37,2013-05-19 09:49:00,
2013-05-19 05:51:00,64.4,64.1,28.96,East,90,0.0,0.0,99,0.00,CLR,SKC,0.39,WeatherDisplay:10.37,2013-05-19 09:51:00,
2013-05-19 05:52:00,64.4,64.1,28.97,North,0,0.0,0.0,99,0.00,CLR,SKC,0.39,WeatherDisplay:10.37,2013-05-19 09:52:00,
2013-05-19 05:53:00,64.4,64.1,28.97,North,0,0.0,0.0,99,0.00,CLR,SKC,0.39,WeatherDisplay:10.37,2013-05-19 09:53:00,
2013-05-19 05:54:00,64.4,64.1,28.97,North,0,1.1,0.0,99,0.00,CLR,SKC,0.39,WeatherDisplay:10.37,2013-05-19 09:54:00,
2013-05-19 05:56:00,64.4,64.1,28.97,North,0,1.1,0.0,99,0.00,CLR,SKC,0.39,WeatherDisplay:10.37,2013-05-19 09:56:00,
2013-05-19 05:57:00,64.4,64.1,28.97,South,180,1.1,0.0,99,0.00,CLR,SKC,0.39,WeatherDisplay:10.37,2013-05-19 09:57:00,
2013-05-19 05:58:00,64.4,64.1,28.97,South,180,1.1,0.0,99,0.00,CLR,SKC,0.39,WeatherDisplay:10.37,2013-05-19 09:58:00,
2013-05-19 05:59:00,64.4,64.1,28.97,South,180,1.1,0.0,99,0.00,CLR,SKC,0.39,WeatherDisplay:10.37,2013-05-19 09:59:00,
2013-05-19 06:01:00,64.4,64.1,28.97,West,270,0.0,0.0,99,0.00,CLR,SKC,0.39,WeatherDisplay:10.37,2013-05-19 10:01:00,
2013-05-19 06:02:00,64.4,64.1,28.97,East,90,0.0,0.0,99,0.00,CLR,SKC,0.39,WeatherDisplay:10.37,2013-05-19 10:02:00,
2013-05-19 06:03:00,64.4,64.1,28.97,East,90,0.0,0.0,99,0.00,CLR,SKC,0.39,WeatherDisplay:10.37,2013-05-19 10:03:00,
2013-05-19 06:04:00,64.4,64.1,28.97,East,90,0.0,0.0,99,0.00,CLR,SKC,0.39,WeatherDisplay:10.37,2013-05-19 10:04:00,
2013-05-19 06:05:00,64.4,64.1,28.97,East,90,0.0,0.0,99,0.00,CLR,SKC,0.39,WeatherDisplay:10.37,2013-05-19 10:05:00,
2013-05-19 06:06:00,64.4,64.1,28.97,East,90,0.0,0.0,99,0.00,CLR,SKC,0.39,WeatherDisplay:10.37,2013-05-19 10:06:00,
2013-05-19 06:07:00,64.4,64.1,28.97,East,90,0.0,0.0,99,0.00,CLR,SKC,0.39,WeatherDisplay:10.37,2013-05-19 10:07:00,
2013-05-19 06:08:00,64.4,64.1,28.97,East,90,0.0,0.0,99,0.00,CLR,SKC,0.39,WeatherDisplay:10.37,2013-05-19 10:08:00,
2013-05-19 06:09:00,64.4,64.1,28.97,South,180,0.0,0.0,99,0.00,CLR,SKC,0.39,WeatherDisplay:10.37,2013-05-19 10:09:00,
2013-05-19 06:10:00,64.4,64.1,28.97,South,180,0.0,0.0,99,0.00,CLR,SKC,0.39,WeatherDisplay:10.37,2013-05-19 10:10:00,
2013-05-19 06:11:00,64.4,64.1,28.97,South,180,0.0,0.0,99,0.00,CLR,SKC,0.39,WeatherDisplay:10.37,2013-05-19 10:11:00,
2013-05-19 06:12:00,64.4,64.1,28.97,South,180,0.0,0.0,99,0.00,CLR,SKC,0.39,WeatherDisplay:10.37,2013-05-19 10:12:00,
2013-05-19 06:13:00,64.4,64.1,28.97,South,180,0.0,0.0,99,0.00,CLR,SKC,0.39,WeatherDisplay:10.37,2013-05-19 10:13:00,
2013-05-19 06:14:00,64.4,64.1,28.97,SW,225,0.0,0.0,99,0.00,CLR,SKC,0.39,WeatherDisplay:10.37,2013-05-19 10:14:00,
2013-05-19 06:15:00,64.4,64.1,28.97,SE,135,0.0,0.0,99,0.00,CLR,SKC,0.39,WeatherDisplay:10.37,2013-05-19 10:15:00,
2013-05-19 06:16:00,64.4,64.1,28.97,North,0,0.0,0.0,99,0.00,CLR,SKC,0.39,WeatherDisplay:10.37,2013-05-19 10:16:00,
2013-05-19 06:17:00,64.4,64.1,28.97,North,0,0.0,0.0,99,0.00,CLR,SKC,0.39,WeatherDisplay:10.37,2013-05-19 10:17:00,
2013-05-19 06:18:00,64.4,64.1,28.97,East,90,1.6,0.0,99,0.00,CLR,SKC,0.39,WeatherDisplay:10.37,2013-05-19 10:18:00,
2013-05-19 06:19:00,64.4,64.1,28.97,East,90,0.0,0.0,99,0.00,CLR,SKC,0.39,WeatherDisplay:10.37,2013-05-19 10:19:00,
2013-05-19 06:20:00,64.2,63.9,28.97,East,90,1.1,0.0,99,0.00,CLR,SKC,0.39,WeatherDisplay:10.37,2013-05-19 10:20:00,
2013-05-19 06:22:00,64.2,63.9,28.97,East,90,0.0,0.0,99,0.00,CLR,SKC,0.39,WeatherDisplay:10.37,2013-05-19 10:22:00,
2013-05-19 06:23:00,64.2,63.9,28.97,East,90,0.0,0.0,99,0.00,CLR,SKC,0.39,WeatherDisplay:10.37,2013-05-19 10:23:00,
2013-05-19 06:24:00,64.4,64.1,28.97,NE,45,0.0,0.0,99,0.00,CLR,SKC,0.39,WeatherDisplay:10.37,2013-05-19 10:24:00,
2013-05-19 06:25:00,64.4,64.1,28.97,NE,45,0.0,0.0,99,0.00,CLR,SKC,0.39,WeatherDisplay:10.37,2013-05-19 10:25:00,
2013-05-19 06:27:00,64.4,64.1,28.97,NE,45,0.0,0.0,99,0.00,CLR,SKC,0.39,WeatherDisplay:10.37,2013-05-19 10:27:00,
2013-05-19 06:28:00,64.4,64.1,28.97,NE,45,0.0,0.0,99,0.00,CLR,SKC,0.39,WeatherDisplay:10.37,2013-05-19 10:28:00,
2013-05-19 06:29:00,64.4,64.1,28.97,NE,45,0.0,0.0,99,0.00,CLR,SKC,0.39,WeatherDisplay:10.37,2013-05-19 10:29:00,
2013-05-19 06:30:00,64.4,64.1,28.97,NE,45,1.1,0.0,99,0.00,CLR,SKC,0.39,WeatherDisplay:10.37,2013-05-19 10:30:00,
2013-05-19 06:32:00,64.4,64.1,28.98,NE,45,1.1,0.0,99,0.00,CLR,SKC,0.39,WeatherDisplay:10.37,2013-05-19 10:32:00,
2013-05-19 06:33:00,64.4,64.1,28.98,NE,45,1.1,0.0,99,0.00,CLR,SKC,0.39,WeatherDisplay:10.37,2013-05-19 10:33:00,
2013-05-19 06:34:00,64.4,64.1,28.98,NE,45,0.0,0.0,99,0.00,CLR,SKC,0.39,WeatherDisplay:10.37,2013-05-19 10:34:00,
2013-05-19 06:35:00,64.4,64.1,28.98,NE,45,0.0,0.0,99,0.00,CLR,SKC,0.39,WeatherDisplay:10.37,2013-05-19 10:35:00,
2013-05-19 06:38:00,64.2,63.9,28.98,NE,45,0.0,0.0,99,0.00,CLR,SKC,0.39,WeatherDisplay:10.37,2013-05-19 10:38:00,
2013-05-19 06:39:00,64.4,64.1,28.98,NE,45,0.0,0.0,99,0.00,CLR,SKC,0.39,WeatherDisplay:10.37,2013-05-19 10:39:00,
2013-05-19 06:40:00,64.4,64.1,28.98,NE,45,0.0,0.0,99,0.00,CLR,SKC,0.39,WeatherDisplay:10.37,2013-05-19 10:40:00,
2013-05-19 06:41:00,64.4,64.1,28.98,South,180,0.0,0.0,99,0.00,CLR,SKC,0.39,WeatherDisplay:10.37,2013-05-19 10:41:00,
2013-05-19 06:43:00,64.4,64.1,28.98,West,270,0.0,0.0,99,0.00,CLR,SKC,0.39,WeatherDisplay:10.37,2013-05-19 10:43:00,
2013-05-19 06:44:00,64.4,64.1,28.98,South,180,0.0,0.0,99,0.00,CLR,SKC,0.39,WeatherDisplay:10.37,2013-05-19 10:44:00,
2013-05-19 06:45:00,64.4,64.1,28.98,South,180,0.0,0.0,99,0.00,CLR,SKC,0.39,WeatherDisplay:10.37,2013-05-19 10:45:00,
2013-05-19 06:46:00,64.4,64.1,28.98,South,180,0.0,0.0,99,0.00,CLR,SKC,0.39,WeatherDisplay:10.37,2013-05-19 10:46:00,
2013-05-19 06:48:00,64.4,64.1,28.98,South,180,0.0,0.0,99,0.00,CLR,SKC,0.39,WeatherDisplay:10.37,2013-05-19 10:48:00,
2013-05-19 06:49:00,64.4,64.1,28.98,NW,315,0.0,0.0,99,0.00,CLR,SKC,0.39,WeatherDisplay:10.37,2013-05-19 10:49:00,
2013-05-19 06:50:00,64.4,64.1,28.98,NW,315,1.1,0.0,99,0.00,CLR,SKC,0.39,WeatherDisplay:10.37,2013-05-19 10:50:00,
2013-05-19 06:51:00,64.2,63.9,28.98,North,0,1.1,0.0,99,0.00,CLR,SKC,0.39,WeatherDisplay:10.37,2013-05-19 10:51:00,
2013-05-19 06:53:00,64.4,64.1,28.98,North,0,1.1,0.0,99,0.00,CLR,SKC,0.39,WeatherDisplay:10.37,2013-05-19 10:53:00,
2013-05-19 06:54:00,64.4,64.1,28.98,North,0,1.1,0.0,99,0.00,CLR,SKC,0.39,WeatherDisplay:10.37,2013-05-19 10:54:00,
2013-05-19 06:55:00,64.4,64.1,28.98,North,0,1.1,0.0,99,0.00,CLR,SKC,0.39,WeatherDisplay:10.37,2013-05-19 10:55:00,
2013-05-19 06:56:00,64.4,64.1,28.98,North,0,1.1,0.0,99,0.00,CLR,SKC,0.39,WeatherDisplay:10.37,2013-05-19 10:56:00,
2013-05-19 06:59:00,64.4,64.1,28.98,North,0,0.0,0.0,99,0.00,CLR,SKC,0.39,WeatherDisplay:10.37,2013-05-19 10:59:00,
2013-05-19 07:00:00,64.4,64.1,28.98,North,0,1.1,0.0,99,0.00,CLR,SKC,0.39,WeatherDisplay:10.37,2013-05-19 11:00:00,
2013-05-19 07:01:00,64.4,64.1,28.98,North,0,1.1,0.0,99,0.00,CLR,SKC,0.39,WeatherDisplay:10.37,2013-05-19 11:01:00,
2013-05-19 07:04:00,64.4,64.1,28.99,North,0,1.1,0.0,99,0.00,CLR,SKC,0.39,WeatherDisplay:10.37,2013-05-19 11:04:00,
2013-05-19 07:05:00,64.4,64.1,28.98,SW,225,0.0,0.0,99,0.00,CLR,SKC,0.39,WeatherDisplay:10.37,2013-05-19 11:05:00,
2013-05-19 07:06:00,64.4,64.1,28.98,South,180,1.1,0.0,99,0.00,CLR,SKC,0.39,WeatherDisplay:10.37,2013-05-19 11:06:00,
2013-05-19 07:09:00,64.6,64.3,28.98,North,0,1.1,0.0,99,0.00,CLR,SKC,0.39,WeatherDisplay:10.37,2013-05-19 11:09:00,
2013-05-19 07:10:00,64.6,64.3,28.98,North,0,1.1,0.0,99,0.00,CLR,SKC,0.39,WeatherDisplay:10.37,2013-05-19 11:10:00,
2013-05-19 07:11:00,64.6,64.3,28.98,North,0,0.0,0.0,99,0.00,CLR,SKC,0.39,WeatherDisplay:10.37,2013-05-19 11:11:00,
2013-05-19 07:12:00,64.6,64.3,28.98,North,0,0.0,0.0,99,0.00,CLR,SKC,0.39,WeatherDisplay:10.37,2013-05-19 11:12:00,
2013-05-19 07:14:00,64.6,64.3,28.98,SE,135,1.6,0.0,99,0.00,CLR,SKC,0.39,WeatherDisplay:10.37,2013-05-19 11:14:00,
2013-05-19 07:15:00,64.6,64.3,28.98,SE,135,1.1,0.0,99,0.00,CLR,SKC,0.39,WeatherDisplay:10.37,2013-05-19 11:15:00,
2013-05-19 07:16:00,64.6,64.3,28.98,South,180,1.1,0.0,99,0.00,CLR,SKC,0.39,WeatherDisplay:10.37,2013-05-19 11:16:00,
2013-05-19 07:17:00,64.6,64.3,28.98,South,180,1.1,0.0,99,0.00,CLR,SKC,0.39,WeatherDisplay:10.37,2013-05-19 11:17:00,
2013-05-19 07:19:00,64.6,64.3,28.98,NE,45,1.1,0.0,99,0.00,CLR,SKC,0.39,WeatherDisplay:10.37,2013-05-19 11:19:00,
2013-05-19 07:20:00,64.6,64.3,28.98,NE,45,1.1,0.0,99,0.00,CLR,SKC,0.39,WeatherDisplay:10.37,2013-05-19 11:20:00,
2013-05-19 07:21:00,64.6,64.3,28.98,East,90,1.1,0.0,99,0.00,CLR,SKC,0.39,WeatherDisplay:10.37,2013-05-19 11:21:00,
2013-05-19 07:22:00,64.6,64.3,28.98,East,90,0.0,0.0,99,0.00,CLR,SKC,0.39,WeatherDisplay:10.37,2013-05-19 11:22:00,
2013-05-19 07:24:00,64.6,64.3,28.98,East,90,1.1,0.0,99,0.00,CLR,SKC,0.39,WeatherDisplay:10.37,2013-05-19 11:24:00,
2013-05-19 07:25:00,64.6,64.3,28.98,South,180,1.1,0.0,99,0.00,CLR,SKC,0.39,WeatherDisplay:10.37,2013-05-19 11:25:00,
2013-05-19 07:27:00,64.8,64.5,28.98,South,180,0.0,0.0,99,0.00,CLR,SKC,0.39,WeatherDisplay:10.37,2013-05-19 11:27:00,
2013-05-19 07:29:00,64.8,64.5,28.98,South,180,0.0,0.0,99,0.00,CLR,SKC,0.39,WeatherDisplay:10.37,2013-05-19 11:29:00,
2013-05-19 07:30:00,64.8,64.5,28.98,South,180,0.0,0.0,99,0.00,CLR,SKC,0.39,WeatherDisplay:10.37,2013-05-19 11:30:00,
2013-05-19 07:32:00,64.8,64.5,28.98,South,180,0.0,0.0,99,0.00,CLR,SKC,0.39,WeatherDisplay:10.37,2013-05-19 11:32:00,
2013-05-19 07:35:00,64.8,64.5,28.98,SW,225,0.0,0.0,99,0.00,CLR,SKC,0.39,WeatherDisplay:10.37,2013-05-19 11:35:00,
2013-05-19 07:37:00,64.9,64.7,28.98,West,270,0.0,0.0,99,0.00,CLR,SKC,0.39,WeatherDisplay:10.37,2013-05-19 11:37:00,
2013-05-19 07:38:00,65.1,64.8,28.98,South,180,0.0,0.0,99,0.00,CLR,SKC,0.39,WeatherDisplay:10.37,2013-05-19 11:38:00,
2013-05-19 07:40:00,65.1,64.8,28.98,South,180,1.1,0.0,99,0.00,CLR,SKC,0.39,WeatherDisplay:10.37,2013-05-19 11:40:00,
2013-05-19 07:42:00,65.3,65.0,28.98,SW,225,1.1,0.0,99,0.00,CLR,SKC,0.39,WeatherDisplay:10.37,2013-05-19 11:42:00,
2013-05-19 07:43:00,65.3,65.0,28.98,SW,225,1.1,0.0,99,0.00,CLR,SKC,0.39,WeatherDisplay:10.37,2013-05-19 11:43:00,
2013-05-19 07:45:00,65.5,65.2,28.99,South,180,0.0,0.0,99,0.00,CLR,SKC,0.39,WeatherDisplay:10.37,2013-05-19 11:45:00,
2013-05-19 07:47:00,65.5,65.2,28.99,South,180,1.1,0.0,99,0.00,CLR,SKC,0.39,WeatherDisplay:10.37,2013-05-19 11:47:00,
2013-05-19 07:48:00,65.7,65.4,28.99,South,180,1.1,0.0,99,0.00,CLR,SKC,0.39,WeatherDisplay:10.37,2013-05-19 11:48:00,
2013-05-19 07:50:00,65.5,65.2,28.98,South,180,1.1,0.0,99,0.00,CLR,SKC,0.39,WeatherDisplay:10.37,2013-05-19 11:50:00,
2013-05-19 07:51:00,65.5,65.2,28.99,NE,45,1.1,0.0,99,0.00,CLR,SKC,0.39,WeatherDisplay:10.37,2013-05-19 11:51:00,
2013-05-19 07:52:00,65.5,65.2,28.99,NE,45,1.1,0.0,99,0.00,CLR,SKC,0.39,WeatherDisplay:10.37,2013-05-19 11:52:00,
2013-05-19 07:53:00,65.5,65.2,28.99,NE,45,1.1,0.0,99,0.00,CLR,SKC,0.39,WeatherDisplay:10.37,2013-05-19 11:53:00,
2013-05-19 07:55:00,65.5,65.2,28.99,West,270,0.0,0.0,99,0.00,CLR,SKC,0.39,WeatherDisplay:10.37,2013-05-19 11:55:00,
2013-05-19 07:56:00,65.5,65.2,28.99,West,270,0.0,0.0,99,0.00,CLR,SKC,0.39,WeatherDisplay:10.37,2013-05-19 11:56:00,
2013-05-19 07:57:00,65.5,65.2,28.99,East,90,0.0,0.0,99,0.00,CLR,SKC,0.39,WeatherDisplay:10.37,2013-05-19 11:57:00,
2013-05-19 07:58:00,65.5,65.2,28.99,East,90,0.0,0.0,99,0.00,CLR,SKC,0.39,WeatherDisplay:10.37,2013-05-19 11:58:00,
2013-05-19 08:00:00,65.5,65.2,28.99,South,180,0.0,0.0,99,0.00,CLR,SKC,0.39,WeatherDisplay:10.37,2013-05-19 12:00:00,
2013-05-19 08:01:00,65.5,65.2,28.99,South,180,0.0,0.0,99,0.00,CLR,SKC,0.39,WeatherDisplay:10.37,2013-05-19 12:01:00,
2013-05-19 08:03:00,65.5,65.2,28.99,South,180,0.0,0.0,99,0.00,CLR,SKC,0.39,WeatherDisplay:10.37,2013-05-19 12:03:00,
2013-05-19 08:06:00,65.5,65.2,28.99,South,180,0.0,0.0,99,0.00,CLR,SKC,0.39,WeatherDisplay:10.37,2013-05-19 12:06:00,
2013-05-19 08:07:00,65.5,65.2,28.99,South,180,0.0,0.0,99,0.00,CLR,SKC,0.39,WeatherDisplay:10.37,2013-05-19 12:07:00,
2013-05-19 08:08:00,65.5,65.2,28.99,South,180,0.0,0.0,99,0.00,CLR,SKC,0.39,WeatherDisplay:10.37,2013-05-19 12:08:00,
2013-05-19 08:09:00,65.1,64.8,28.99,SW,225,1.1,0.0,99,0.00,CLR,SKC,0.39,WeatherDisplay:10.37,2013-05-19 12:09:00,
2013-05-19 08:11:00,65.1,64.8,28.99,NW,315,1.1,0.0,99,0.00,CLR,SKC,0.39,WeatherDisplay:10.37,2013-05-19 12:11:00,
2013-05-19 08:12:00,64.9,64.7,28.99,South,180,1.1,0.0,99,0.00,CLR,SKC,0.39,WeatherDisplay:10.37,2013-05-19 12:12:00,
2013-05-19 08:13:00,64.9,64.7,28.99,South,180,1.1,0.0,99,0.00,CLR,SKC,0.39,WeatherDisplay:10.37,2013-05-19 12:13:00,
2013-05-19 08:15:00,64.9,64.7,28.98,South,180,1.1,0.0,99,0.01,RA,SKC,0.40,WeatherDisplay:10.37,2013-05-19 12:15:00,
2013-05-19 08:16:00,64.9,64.7,28.98,South,180,1.1,0.0,99,0.01,RA,SKC,0.40,WeatherDisplay:10.37,2013-05-19 12:16:00,
2013-05-19 08:17:00,64.9,64.7,28.99,South,180,1.1,0.0,99,0.01,RA,SKC,0.40,WeatherDisplay:10.37,2013-05-19 12:17:00,
2013-05-19 08:18:00,64.9,64.7,28.99,North,0,1.1,0.0,99,0.01,RA,SKC,0.40,WeatherDisplay:10.37,2013-05-19 12:18:00,
2013-05-19 08:20:00,65.1,64.8,28.99,SE,135,1.1,0.0,99,0.01,RA,SKC,0.40,WeatherDisplay:10.37,2013-05-19 12:20:00,
2013-05-19 08:21:00,65.1,64.8,28.99,SE,135,1.1,0.0,99,0.01,RA,SKC,0.40,WeatherDisplay:10.37,2013-05-19 12:21:00,
2013-05-19 08:22:00,65.1,64.8,28.99,SE,135,1.1,0.0,99,0.01,RA,SKC,0.40,WeatherDisplay:10.37,2013-05-19 12:22:00,
2013-05-19 08:23:00,65.1,64.8,28.99,SW,225,1.1,0.0,99,0.01,RA,SKC,0.40,WeatherDisplay:10.37,2013-05-19 12:23:00,
2013-05-19 08:26:00,65.1,64.8,28.99,South,180,1.1,0.0,99,0.01,,SKC,0.40,WeatherDisplay:10.37,2013-05-19 12:26:00,
2013-05-19 08:27:00,65.1,64.8,28.98,SE,135,1.1,0.0,99,0.01,CLR,SKC,0.40,WeatherDisplay:10.37,2013-05-19 12:27:00,
2013-05-19 08:28:00,65.1,64.8,28.99,SE,135,1.1,0.0,99,0.01,CLR,SKC,0.40,WeatherDisplay:10.37,2013-05-19 12:28:00,
2013-05-19 08:31:00,65.3,65.0,28.99,South,180,1.1,0.0,99,0.01,CLR,SKC,0.40,WeatherDisplay:10.37,2013-05-19 12:31:00,
2013-05-19 08:32:00,65.3,65.0,28.99,South,180,1.1,0.0,99,0.01,CLR,SKC,0.40,WeatherDisplay:10.37,2013-05-19 12:32:00,
2013-05-19 08:33:00,65.3,65.0,28.99,NE,45,1.1,0.0,99,0.01,CLR,SKC,0.40,WeatherDisplay:10.37,2013-05-19 12:33:00,
2013-05-19 08:37:00,65.5,65.2,28.98,NW,315,1.1,0.0,99,0.01,CLR,SKC,0.40,WeatherDisplay:10.37,2013-05-19 12:37:00,
2013-05-19 08:38:00,65.5,65.2,28.99,SW,225,0.0,0.0,99,0.01,CLR,SKC,0.40,WeatherDisplay:10.37,2013-05-19 12:38:00,
2013-05-19 08:39:00,65.5,65.2,28.99,SW,225,0.0,0.0,99,0.01,CLR,SKC,0.40,WeatherDisplay:10.37,2013-05-19 12:39:00,
2013-05-19 08:42:00,65.5,65.2,28.99,North,0,0.0,0.0,99,0.01,CLR,SKC,0.40,WeatherDisplay:10.37,2013-05-19 12:42:00,
2013-05-19 08:43:00,65.5,65.2,28.99,North,0,0.0,0.0,99,0.01,CLR,SKC,0.40,WeatherDisplay:10.37,2013-05-19 12:43:00,
2013-05-19 08:44:00,65.5,65.2,28.99,North,0,0.0,0.0,99,0.01,CLR,SKC,0.40,WeatherDisplay:10.37,2013-05-19 12:44:00,
2013-05-19 08:47:00,65.7,65.4,28.99,NE,45,1.1,0.0,99,0.01,CLR,SKC,0.40,WeatherDisplay:10.37,2013-05-19 12:47:00,
2013-05-19 08:48:00,65.7,65.4,28.99,NE,45,1.1,0.0,99,0.01,CLR,SKC,0.40,WeatherDisplay:10.37,2013-05-19 12:48:00,
2013-05-19 08:49:00,65.7,65.4,28.99,South,180,1.6,0.0,99,0.01,CLR,SKC,0.40,WeatherDisplay:10.37,2013-05-19 12:49:00,
2013-05-19 08:52:00,65.7,65.4,28.99,SE,135,1.1,0.0,99,0.01,CLR,SKC,0.40,WeatherDisplay:10.37,2013-05-19 12:52:00,
2013-05-19 08:53:00,65.7,65.4,28.99,SE,135,1.1,0.0,99,0.01,CLR,SKC,0.40,WeatherDisplay:10.37,2013-05-19 12:53:00,
2013-05-19 08:54:00,65.7,65.4,29.00,East,90,0.0,0.0,99,0.01,CLR,SKC,0.40,WeatherDisplay:10.37,2013-05-19 12:54:00,
2013-05-19 08:57:00,65.7,65.4,28.99,East,90,1.1,0.0,99,0.01,CLR,SKC,0.40,WeatherDisplay:10.37,2013-05-19 12:57:00,
2013-05-19 08:58:00,65.7,65.4,28.99,East,90,1.1,0.0,99,0.01,CLR,SKC,0.40,WeatherDisplay:10.37,2013-05-19 12:58:00,
2013-05-19 08:59:00,65.7,65.4,28.99,East,90,1.1,0.0,99,0.01,CLR,SKC,0.40,WeatherDisplay:10.37,2013-05-19 12:59:00,
2013-05-19 15:17:00,73.0,68.6,28.89,WNW,292,0.0,0.0,86,0.15,CLR,SKC,0.57,WeatherDisplay:10.37,2013-05-19 19:17:00,
2013-05-19 15:18:00,73.0,68.6,28.89,WNW,292,0.0,0.0,86,0.15,CLR,SKC,0.57,WeatherDisplay:10.37,2013-05-19 19:18:00,
2013-05-19 15:22:00,71.2,68.5,28.89,South,180,0.0,0.0,91,0.20,RA,SKC,0.61,WeatherDisplay:10.37,2013-05-19 19:22:00,
2013-05-19 15:23:00,71.2,68.5,28.89,South,180,0.0,0.0,91,0.20,RA,SKC,0.61,WeatherDisplay:10.37,2013-05-19 19:23:00,
2013-05-19 15:24:00,71.2,68.5,28.89,South,180,0.0,0.0,91,0.20,RA,SKC,0.61,WeatherDisplay:10.37,2013-05-19 19:24:00,
2013-05-19 15:28:00,71.2,68.5,28.90,South,180,0.0,0.0,91,0.20,RA,SKC,0.61,WeatherDisplay:10.37,2013-05-19 19:28:00,
2013-05-19 15:29:00,70.9,68.8,28.90,South,180,0.0,0.0,93,0.20,RA,SKC,0.61,WeatherDisplay:10.37,2013-05-19 19:29:00,
2013-05-19 15:33:00,70.9,68.8,28.89,South,180,0.0,0.0,93,0.20,CLR,SKC,0.61,WeatherDisplay:10.37,2013-05-19 19:33:00,
2013-05-19 15:34:00,70.7,68.9,28.90,North,0,1.1,0.0,94,0.20,CLR,SKC,0.61,WeatherDisplay:10.37,2013-05-19 19:34:00,
2013-05-19 15:38:00,70.5,68.7,28.89,NE,45,1.1,0.0,94,0.21,RA,SKC,0.63,WeatherDisplay:10.37,2013-05-19 19:38:00,
2013-05-19 15:39:00,70.5,68.7,28.89,NE,45,1.1,0.0,94,0.21,RA,SKC,0.63,WeatherDisplay:10.37,2013-05-19 19:39:00,
2013-05-19 15:43:00,70.7,68.9,28.89,NE,45,0.0,0.0,94,0.21,RA,SKC,0.63,WeatherDisplay:10.37,2013-05-19 19:43:00,
2013-05-19 15:44:00,70.7,68.9,28.89,NE,45,0.0,0.0,94,0.21,RA,SKC,0.63,WeatherDisplay:10.37,2013-05-19 19:44:00,
2013-05-19 15:45:00,70.7,68.9,28.89,NE,45,0.0,0.0,94,0.21,RA,SKC,0.63,WeatherDisplay:10.37,2013-05-19 19:45:00,
2013-05-19 15:48:00,70.7,68.9,28.90,NE,45,0.0,0.0,94,0.21,,SKC,0.63,WeatherDisplay:10.37,2013-05-19 19:48:00,
2013-05-19 15:49:00,70.7,68.9,28.90,NE,45,0.0,0.0,94,0.21,CLR,SKC,0.63,WeatherDisplay:10.37,2013-05-19 19:49:00,
2013-05-19 15:50:00,70.7,68.9,28.90,NE,45,0.0,0.0,94,0.00,CLR,SKC,0.63,WeatherDisplay:10.37,2013-05-19 19:50:00,
2013-05-19 15:53:00,70.7,68.9,28.90,North,2,0.0,0.0,94,0.21,CLR,SKC,0.63,WeatherDisplay:10.37,2013-05-19 19:53:00,
2013-05-19 15:54:00,70.7,68.9,28.90,North,2,0.0,0.0,94,0.21,CLR,SKC,0.63,WeatherDisplay:10.37,2013-05-19 19:54:00,
2013-05-19 15:55:00,70.7,68.9,28.90,North,1,0.0,0.0,94,0.06,CLR,SKC,0.63,WeatherDisplay:10.37,2013-05-19 19:55:00,
2013-05-19 15:59:00,70.7,68.9,28.90,North,0,0.0,0.0,94,0.06,CLR,SKC,0.63,WeatherDisplay:10.37,2013-05-19 19:59:00,
2013-05-19 16:00:00,70.7,68.9,28.90,North,0,0.0,0.0,94,0.06,CLR,SKC,0.63,WeatherDisplay:10.37,2013-05-19 20:00:00,
2013-05-19 16:04:00,70.7,68.9,28.90,North,0,0.0,0.0,94,0.06,CLR,SKC,0.63,WeatherDisplay:10.37,2013-05-19 20:04:00,
2013-05-19 16:05:00,70.7,68.9,28.90,North,0,0.0,0.0,94,0.06,CLR,SKC,0.63,WeatherDisplay:10.37,2013-05-19 20:05:00,
2013-05-19 16:09:00,70.7,68.9,28.90,North,0,0.0,0.0,94,0.06,CLR,SKC,0.63,WeatherDisplay:10.37,2013-05-19 20:09:00,
2013-05-19 16:10:00,70.7,68.9,28.90,North,0,0.0,0.0,94,0.06,CLR,SKC,0.63,WeatherDisplay:10.37,2013-05-19 20:10:00,
2013-05-19 16:11:00,70.7,68.9,28.90,North,0,0.0,0.0,94,0.06,CLR,SKC,0.63,WeatherDisplay:10.37,2013-05-19 20:11:00,
2013-05-19 16:14:00,70.7,68.9,28.91,North,0,0.0,0.0,94,0.06,CLR,SKC,0.63,WeatherDisplay:10.37,2013-05-19 20:14:00,
2013-05-19 16:15:00,70.7,68.9,28.91,North,0,0.0,0.0,94,0.06,CLR,SKC,0.63,WeatherDisplay:10.37,2013-05-19 20:15:00,
2013-05-19 16:16:00,70.7,68.9,28.91,North,0,0.0,0.0,94,0.06,CLR,SKC,0.63,WeatherDisplay:10.37,2013-05-19 20:16:00,
2013-05-19 16:19:00,70.7,68.9,28.90,North,0,0.0,0.0,94,0.06,CLR,SKC,0.63,WeatherDisplay:10.37,2013-05-19 20:19:00,
2013-05-19 16:20:00,70.7,68.9,28.90,North,0,0.0,0.0,94,0.06,CLR,SKC,0.63,WeatherDisplay:10.37,2013-05-19 20:20:00,
2013-05-19 16:21:00,70.7,68.9,28.90,North,0,0.0,0.0,94,0.01,CLR,SKC,0.63,WeatherDisplay:10.37,2013-05-19 20:21:00,
2013-05-19 16:25:00,70.7,68.9,28.90,North,0,0.0,0.0,94,0.01,CLR,SKC,0.63,WeatherDisplay:10.37,2013-05-19 20:25:00,
2013-05-19 16:26:00,70.3,68.8,28.90,NE,45,0.0,0.0,95,0.01,CLR,SKC,0.63,WeatherDisplay:10.37,2013-05-19 20:26:00,
2013-05-19 16:30:00,70.3,68.8,28.91,NE,45,0.0,0.0,95,0.01,CLR,SKC,0.63,WeatherDisplay:10.37,2013-05-19 20:30:00,
2013-05-19 16:31:00,70.3,68.8,28.91,NE,45,0.0,0.0,95,0.01,CLR,SKC,0.63,WeatherDisplay:10.37,2013-05-19 20:31:00,
2013-05-19 16:32:00,70.3,68.8,28.91,NE,45,0.0,0.0,95,0.01,CLR,SKC,0.63,WeatherDisplay:10.37,2013-05-19 20:32:00,
2013-05-19 16:35:00,70.2,69.0,28.91,North,0,0.0,0.0,96,0.01,CLR,SKC,0.63,WeatherDisplay:10.37,2013-05-19 20:35:00,
2013-05-19 16:36:00,70.2,69.0,28.91,North,0,0.0,0.0,96,0.01,CLR,SKC,0.63,WeatherDisplay:10.37,2013-05-19 20:36:00,
2013-05-19 16:37:00,70.2,69.0,28.91,North,0,0.0,0.0,96,0.01,CLR,SKC,0.63,WeatherDisplay:10.37,2013-05-19 20:37:00,
2013-05-19 16:40:00,70.2,69.0,28.92,North,0,0.0,0.0,96,0.00,CLR,SKC,0.63,WeatherDisplay:10.37,2013-05-19 20:40:00,
2013-05-19 16:41:00,70.2,69.0,28.92,North,0,0.0,0.0,96,0.00,CLR,SKC,0.63,WeatherDisplay:10.37,2013-05-19 20:41:00,
2013-05-19 16:42:00,70.2,69.0,28.92,North,0,0.0,0.0,96,0.00,CLR,SKC,0.63,WeatherDisplay:10.37,2013-05-19 20:42:00,
2013-05-19 16:45:00,70.2,69.0,28.92,North,0,0.0,0.0,96,0.00,CLR,SKC,0.63,WeatherDisplay:10.37,2013-05-19 20:45:00,
2013-05-19 16:46:00,70.2,69.0,28.92,North,0,0.0,0.0,96,0.00,CLR,SKC,0.63,WeatherDisplay:10.37,2013-05-19 20:46:00,
2013-05-19 16:47:00,70.2,69.0,28.92,North,0,0.0,0.0,96,0.00,CLR,SKC,0.63,WeatherDisplay:10.37,2013-05-19 20:47:00,
2013-05-19 16:50:00,70.5,69.6,28.91,NW,315,0.0,0.0,97,0.00,CLR,SKC,0.63,WeatherDisplay:10.37,2013-05-19 20:50:00,
2013-05-19 16:51:00,70.5,69.6,28.91,NW,315,0.0,0.0,97,0.00,CLR,SKC,0.63,WeatherDisplay:10.37,2013-05-19 20:51:00,
2013-05-19 16:52:00,70.5,69.6,28.91,NW,315,0.0,0.0,97,0.00,CLR,SKC,0.63,WeatherDisplay:10.37,2013-05-19 20:52:00,
2013-05-19 16:55:00,70.9,70.0,28.92,NW,315,0.0,0.0,97,0.00,CLR,SKC,0.63,WeatherDisplay:10.37,2013-05-19 20:55:00,
2013-05-19 16:56:00,70.9,70.0,28.92,NW,315,0.0,0.0,97,0.00,CLR,SKC,0.63,WeatherDisplay:10.37,2013-05-19 20:56:00,
2013-05-19 16:57:00,70.9,70.0,28.92,NW,315,0.0,0.0,97,0.00,CLR,SKC,0.63,WeatherDisplay:10.37,2013-05-19 20:57:00,
2013-05-19 17:01:00,71.2,70.0,28.92,NW,315,1.1,0.0,96,0.00,CLR,SKC,0.63,WeatherDisplay:10.37,2013-05-19 21:01:00,
2013-05-19 17:02:00,71.4,70.2,28.92,NW,315,1.1,0.0,96,0.00,CLR,SKC,0.63,WeatherDisplay:10.37,2013-05-19 21:02:00,
2013-05-19 17:06:00,71.8,70.6,28.92,SW,225,1.1,0.0,96,0.00,CLR,SKC,0.63,WeatherDisplay:10.37,2013-05-19 21:06:00,
2013-05-19 17:07:00,71.8,70.6,28.92,SW,225,1.1,0.0,96,0.00,CLR,SKC,0.63,WeatherDisplay:10.37,2013-05-19 21:07:00,
2013-05-19 17:08:00,71.8,70.6,28.92,SW,225,1.1,0.0,96,0.00,CLR,SKC,0.63,WeatherDisplay:10.37,2013-05-19 21:08:00,
2013-05-19 17:11:00,72.0,70.8,28.92,SW,225,0.0,0.0,96,0.00,CLR,SKC,0.63,WeatherDisplay:10.37,2013-05-19 21:11:00,
2013-05-19 17:12:00,72.1,70.9,28.92,SW,225,0.0,0.0,96,0.00,CLR,SKC,0.63,WeatherDisplay:10.37,2013-05-19 21:12:00,
2013-05-19 17:13:00,72.1,70.9,28.92,SW,225,0.0,0.0,96,0.00,CLR,SKC,0.63,WeatherDisplay:10.37,2013-05-19 21:13:00,
2013-05-19 17:16:00,72.3,70.8,28.91,SW,225,0.0,0.0,95,0.00,CLR,SKC,0.63,WeatherDisplay:10.37,2013-05-19 21:16:00,
2013-05-19 17:17:00,72.3,70.8,28.91,SW,225,0.0,0.0,95,0.00,CLR,SKC,0.63,WeatherDisplay:10.37,2013-05-19 21:17:00,
2013-05-19 17:18:00,72.3,70.8,28.91,SW,225,0.0,0.0,95,0.00,CLR,SKC,0.63,WeatherDisplay:10.37,2013-05-19 21:18:00,
2013-05-19 17:21:00,72.9,71.7,28.91,SW,225,0.0,0.0,96,0.00,CLR,SKC,0.63,WeatherDisplay:10.37,2013-05-19 21:21:00,
2013-05-19 17:22:00,72.9,71.7,28.91,SW,225,0.0,0.0,96,0.00,CLR,SKC,0.63,WeatherDisplay:10.37,2013-05-19 21:22:00,
2013-05-19 17:23:00,72.9,71.7,28.91,NE,45,0.0,0.0,96,0.00,CLR,SKC,0.63,WeatherDisplay:10.37,2013-05-19 21:23:00,
2013-05-19 17:26:00,73.2,72.0,28.91,NE,45,0.0,0.0,96,0.00,CLR,SKC,0.63,WeatherDisplay:10.37,2013-05-19 21:26:00,
2013-05-19 17:27:00,73.2,72.0,28.91,NE,45,0.0,0.0,96,0.00,CLR,SKC,0.63,WeatherDisplay:10.37,2013-05-19 21:27:00,
2013-05-19 17:28:00,73.2,72.0,28.91,NE,45,0.0,0.0,96,0.00,CLR,SKC,0.63,WeatherDisplay:10.37,2013-05-19 21:28:00,
2013-05-19 17:32:00,73.4,72.2,28.91,South,180,0.0,0.0,96,0.00,CLR,SKC,0.63,WeatherDisplay:10.37,2013-05-19 21:32:00,
2013-05-19 17:33:00,73.4,72.2,28.91,South,180,0.0,0.0,96,0.00,CLR,SKC,0.63,WeatherDisplay:10.37,2013-05-19 21:33:00,
2013-05-19 17:37:00,73.4,71.9,28.90,South,180,0.0,0.0,95,0.00,CLR,SKC,0.63,WeatherDisplay:10.37,2013-05-19 21:37:00,
2013-05-19 17:38:00,73.4,71.9,28.90,South,180,0.0,0.0,95,0.00,CLR,SKC,0.63,WeatherDisplay:10.37,2013-05-19 21:38:00,
2013-05-19 17:39:00,73.4,71.9,28.90,South,180,0.0,0.0,95,0.00,CLR,SKC,0.63,WeatherDisplay:10.37,2013-05-19 21:39:00,
2013-05-19 17:43:00,73.6,72.1,28.90,South,180,0.0,0.0,95,0.00,CLR,SKC,0.63,WeatherDisplay:10.37,2013-05-19 21:43:00,
2013-05-19 17:44:00,73.6,72.1,28.91,South,180,0.0,0.0,95,0.00,CLR,SKC,0.63,WeatherDisplay:10.37,2013-05-19 21:44:00,
2013-05-19 17:48:00,73.6,72.1,28.91,South,180,0.0,0.0,95,0.00,CLR,SKC,0.63,WeatherDisplay:10.37,2013-05-19 21:48:00,
2013-05-19 17:49:00,73.6,72.1,28.90,South,180,0.0,0.0,95,0.00,CLR,SKC,0.63,WeatherDisplay:10.37,2013-05-19 21:49:00,
2013-05-19 17:53:00,73.6,72.1,28.91,North,0,0.0,0.0,95,0.00,CLR,SKC,0.63,WeatherDisplay:10.37,2013-05-19 21:53:00,
2013-05-19 17:54:00,73.4,71.6,28.91,North,0,0.0,0.0,94,0.00,CLR,SKC,0.63,WeatherDisplay:10.37,2013-05-19 21:54:00,
2013-05-19 17:58:00,73.2,71.4,28.91,North,0,0.0,0.0,94,0.00,CLR,SKC,0.63,WeatherDisplay:10.37,2013-05-19 21:58:00,
2013-05-19 17:59:00,73.2,71.4,28.91,North,0,1.1,0.0,94,0.00,CLR,SKC,0.63,WeatherDisplay:10.37,2013-05-19 21:59:00,
2013-05-19 18:00:00,73.2,71.4,28.91,North,0,1.1,0.0,94,0.00,CLR,SKC,0.63,WeatherDisplay:10.37,2013-05-19 22:00:00,
2013-05-19 18:03:00,73.0,71.2,28.91,North,0,1.1,0.0,94,0.00,CLR,SKC,0.63,WeatherDisplay:10.37,2013-05-19 22:03:00,
2013-05-19 18:04:00,73.0,71.2,28.91,North,0,1.1,0.0,94,0.00,CLR,SKC,0.63,WeatherDisplay:10.37,2013-05-19 22:04:00,
2013-05-19 18:05:00,73.0,71.2,28.92,North,0,1.1,0.0,94,0.00,CLR,SKC,0.63,WeatherDisplay:10.37,2013-05-19 22:05:00,
2013-05-19 18:09:00,73.0,71.2,28.91,South,180,1.1,0.0,94,0.00,CLR,SKC,0.63,WeatherDisplay:10.37,2013-05-19 22:09:00,
2013-05-19 18:10:00,72.9,71.0,28.91,South,180,1.1,0.0,94,0.00,CLR,SKC,0.63,WeatherDisplay:10.37,2013-05-19 22:10:00,
2013-05-19 18:14:00,72.7,70.5,28.91,North,0,1.1,0.0,93,0.00,CLR,SKC,0.63,WeatherDisplay:10.37,2013-05-19 22:14:00,
2013-05-19 18:15:00,72.7,70.5,28.91,North,0,0.0,0.0,93,0.00,CLR,SKC,0.63,WeatherDisplay:10.37,2013-05-19 22:15:00,
2013-05-19 18:19:00,72.7,70.5,28.91,North,0,1.1,0.0,93,0.00,CLR,SKC,0.63,WeatherDisplay:10.37,2013-05-19 22:19:00,
2013-05-19 18:20:00,72.7,70.5,28.91,North,0,1.1,0.0,93,0.00,CLR,SKC,0.63,WeatherDisplay:10.37,2013-05-19 22:20:00,
2013-05-19 18:25:00,72.5,70.4,28.91,North,0,0.0,0.0,93,0.00,CLR,SKC,0.63,WeatherDisplay:10.37,2013-05-19 22:25:00,
2013-05-19 18:26:00,72.5,70.4,28.92,North,0,0.0,0.0,93,0.00,CLR,SKC,0.63,WeatherDisplay:10.37,2013-05-19 22:26:00,
2013-05-19 18:30:00,72.5,70.4,28.92,North,0,0.0,0.0,93,0.00,CLR,SKC,0.63,WeatherDisplay:10.37,2013-05-19 22:30:00,
2013-05-19 18:31:00,72.5,70.4,28.92,North,0,0.0,0.0,93,0.00,CLR,SKC,0.63,WeatherDisplay:10.37,2013-05-19 22:31:00,
2013-05-19 18:35:00,72.5,70.4,28.92,North,0,0.0,0.0,93,0.00,CLR,SKC,0.63,WeatherDisplay:10.37,2013-05-19 22:35:00,
2013-05-19 18:36:00,72.5,70.4,28.92,North,0,0.0,0.0,93,0.00,CLR,SKC,0.63,WeatherDisplay:10.37,2013-05-19 22:36:00,
2013-05-19 18:37:00,72.5,70.4,28.91,North,0,0.0,0.0,93,0.00,CLR,SKC,0.63,WeatherDisplay:10.37,2013-05-19 22:37:00,
2013-05-19 18:40:00,72.5,70.4,28.92,South,180,1.1,0.0,93,0.00,CLR,SKC,0.63,WeatherDisplay:10.37,2013-05-19 22:40:00,
2013-05-19 18:41:00,72.5,70.4,28.92,South,180,1.1,0.0,93,0.00,CLR,SKC,0.63,WeatherDisplay:10.37,2013-05-19 22:41:00,
2013-05-19 18:42:00,72.1,70.0,28.92,South,180,0.0,0.0,93,0.00,CLR,SKC,0.63,WeatherDisplay:10.37,2013-05-19 22:42:00,
2013-05-19 18:45:00,72.0,69.5,28.92,South,180,1.1,0.0,92,0.00,CLR,SKC,0.63,WeatherDisplay:10.37,2013-05-19 22:45:00,
2013-05-19 18:46:00,72.0,69.5,28.92,South,180,1.1,0.0,92,0.00,CLR,SKC,0.63,WeatherDisplay:10.37,2013-05-19 22:46:00,
2013-05-19 18:47:00,71.8,69.3,28.92,South,180,1.1,0.0,92,0.00,CLR,SKC,0.63,WeatherDisplay:10.37,2013-05-19 22:47:00,
2013-05-19 18:50:00,71.6,69.2,28.92,South,180,1.1,0.0,92,0.00,CLR,SKC,0.63,WeatherDisplay:10.37,2013-05-19 22:50:00,
2013-05-19 18:51:00,71.6,69.2,28.92,South,180,1.1,0.0,92,0.00,CLR,SKC,0.63,WeatherDisplay:10.37,2013-05-19 22:51:00,
2013-05-19 18:52:00,71.4,69.0,28.92,South,180,1.1,0.0,92,0.00,CLR,SKC,0.63,WeatherDisplay:10.37,2013-05-19 22:52:00,
2013-05-19 18:56:00,71.2,69.1,28.92,South,180,0.0,0.0,93,0.00,CLR,SKC,0.63,WeatherDisplay:10.37,2013-05-19 22:56:00,
2013-05-19 18:57:00,71.2,69.1,28.92,South,180,0.0,0.0,93,0.00,CLR,SKC,0.63,WeatherDisplay:10.37,2013-05-19 22:57:00,
2013-05-19 18:58:00,71.2,69.1,28.92,South,180,0.0,0.0,93,0.00,CLR,SKC,0.63,WeatherDisplay:10.37,2013-05-19 22:58:00,
2013-05-19 19:01:00,71.1,68.9,28.91,South,180,0.0,0.0,93,0.00,CLR,SKC,0.63,WeatherDisplay:10.37,2013-05-19 23:01:00,
2013-05-19 19:02:00,70.9,69.1,28.90,South,180,0.0,0.0,94,0.00,CLR,SKC,0.63,WeatherDisplay:10.37,2013-05-19 23:02:00,
2013-05-19 19:03:00,70.9,69.1,28.90,South,180,0.0,0.0,94,0.00,CLR,SKC,0.63,WeatherDisplay:10.37,2013-05-19 23:03:00,
2013-05-19 19:06:00,70.7,68.9,28.90,South,180,0.0,0.0,94,0.00,CLR,SKC,0.63,WeatherDisplay:10.37,2013-05-19 23:06:00,
2013-05-19 19:08:00,70.7,68.9,28.90,South,180,0.0,0.0,94,0.00,CLR,SKC,0.63,WeatherDisplay:10.37,2013-05-19 23:08:00,
2013-05-19 19:11:00,70.5,69.0,28.90,South,180,0.0,0.0,95,0.00,CLR,SKC,0.63,WeatherDisplay:10.37,2013-05-19 23:11:00,
2013-05-19 19:12:00,70.5,69.0,28.90,South,180,0.0,0.0,95,0.00,CLR,SKC,0.63,WeatherDisplay:10.37,2013-05-19 23:12:00,
2013-05-19 19:13:00,70.3,68.8,28.90,East,90,1.1,0.0,95,0.00,CLR,SKC,0.63,WeatherDisplay:10.37,2013-05-19 23:13:00,
2013-05-19 19:16:00,70.3,68.8,28.91,North,0,1.1,0.0,95,0.00,CLR,SKC,0.63,WeatherDisplay:10.37,2013-05-19 23:16:00,
2013-05-19 19:17:00,70.3,68.8,28.91,North,0,1.1,0.0,95,0.00,CLR,SKC,0.63,WeatherDisplay:10.37,2013-05-19 23:17:00,
2013-05-19 19:18:00,70.3,68.8,28.91,North,0,1.1,0.0,95,0.00,CLR,SKC,0.63,WeatherDisplay:10.37,2013-05-19 23:18:00,
2013-05-19 19:19:00,70.3,68.8,28.91,North,0,1.1,0.0,95,0.00,CLR,SKC,0.63,WeatherDisplay:10.37,2013-05-19 23:19:00,
2013-05-19 19:21:00,70.2,68.7,28.91,North,0,1.1,0.0,95,0.00,CLR,SKC,0.63,WeatherDisplay:10.37,2013-05-19 23:21:00,
2013-05-19 19:22:00,70.2,68.7,28.91,North,0,1.1,0.0,95,0.00,CLR,SKC,0.63,WeatherDisplay:10.37,2013-05-19 23:22:00,
2013-05-19 19:23:00,70.2,69.0,28.91,North,0,1.1,0.0,96,0.00,CLR,SKC,0.63,WeatherDisplay:10.37,2013-05-19 23:23:00,
2013-05-19 19:24:00,70.2,69.0,28.91,North,0,1.1,0.0,96,0.00,CLR,SKC,0.63,WeatherDisplay:10.37,2013-05-19 23:24:00,
2013-05-19 19:26:00,70.3,69.1,28.91,North,0,1.1,0.0,96,0.00,CLR,SKC,0.63,WeatherDisplay:10.37,2013-05-19 23:26:00,
2013-05-19 19:27:00,70.3,69.1,28.91,North,0,1.1,0.0,96,0.00,CLR,SKC,0.63,WeatherDisplay:10.37,2013-05-19 23:27:00,
2013-05-19 19:28:00,70.3,69.1,28.91,North,0,0.0,0.0,96,0.00,CLR,SKC,0.63,WeatherDisplay:10.37,2013-05-19 23:28:00,
2013-05-19 19:29:00,70.5,69.3,28.91,North,0,0.0,0.0,96,0.00,CLR,SKC,0.63,WeatherDisplay:10.37,2013-05-19 23:29:00,
2013-05-19 19:31:00,70.5,69.3,28.91,North,0,1.1,0.0,96,0.00,CLR,SKC,0.63,WeatherDisplay:10.37,2013-05-19 23:31:00,
2013-05-19 19:32:00,70.5,69.6,28.91,North,0,1.1,0.0,97,0.00,CLR,SKC,0.63,WeatherDisplay:10.37,2013-05-19 23:32:00,
2013-05-19 19:33:00,70.5,69.6,28.91,North,0,1.1,0.0,97,0.00,CLR,SKC,0.63,WeatherDisplay:10.37,2013-05-19 23:33:00,
2013-05-19 19:34:00,70.5,69.6,28.91,North,0,1.1,0.0,97,0.00,CLR,SKC,0.63,WeatherDisplay:10.37,2013-05-19 23:34:00,
2013-05-19 19:37:00,70.3,69.4,28.91,North,0,0.0,0.0,97,0.00,CLR,SKC,0.63,WeatherDisplay:10.37,2013-05-19 23:37:00,
2013-05-19 19:38:00,70.3,69.4,28.91,North,0,1.1,0.0,97,0.00,CLR,SKC,0.63,WeatherDisplay:10.37,2013-05-19 23:38:00,
2013-05-19 19:39:00,70.3,69.4,28.91,North,0,1.1,0.0,97,0.00,CLR,SKC,0.63,WeatherDisplay:10.37,2013-05-19 23:39:00,
2013-05-19 19:42:00,70.3,69.4,28.91,North,0,1.1,0.0,97,0.00,CLR,SKC,0.63,WeatherDisplay:10.37,2013-05-19 23:42:00,
2013-05-19 19:43:00,70.3,69.4,28.91,North,0,1.1,0.0,97,0.00,CLR,SKC,0.63,WeatherDisplay:10.37,2013-05-19 23:43:00,
2013-05-19 19:44:00,70.3,69.4,28.91,North,0,1.1,0.0,97,0.00,CLR,SKC,0.63,WeatherDisplay:10.37,2013-05-19 23:44:00,
2013-05-19 19:45:00,70.3,69.4,28.92,North,0,1.1,0.0,97,0.01,RA,SKC,0.64,WeatherDisplay:10.37,2013-05-19 23:45:00,
2013-05-19 19:47:00,70.2,69.3,28.92,North,0,0.0,0.0,97,0.01,RA,SKC,0.64,WeatherDisplay:10.37,2013-05-19 23:47:00,
2013-05-19 19:48:00,70.2,69.3,28.92,North,0,0.0,0.0,97,0.01,RA,SKC,0.64,WeatherDisplay:10.37,2013-05-19 23:48:00,
2013-05-19 19:49:00,70.2,69.3,28.91,North,0,0.0,0.0,97,0.01,RA,SKC,0.64,WeatherDisplay:10.37,2013-05-19 23:49:00,
2013-05-19 19:51:00,70.2,69.3,28.91,North,0,0.0,0.0,97,0.01,RA,SKC,0.64,WeatherDisplay:10.37,2013-05-19 23:51:00,
2013-05-19 19:52:00,70.0,69.1,28.92,North,0,0.0,0.0,97,0.01,RA,SKC,0.64,WeatherDisplay:10.37,2013-05-19 23:52:00,
2013-05-19 19:53:00,70.0,69.1,28.92,North,0,0.0,0.0,97,0.01,RA,SKC,0.64,WeatherDisplay:10.37,2013-05-19 23:53:00,
2013-05-19 19:54:00,70.0,69.1,28.92,North,0,0.0,0.0,97,0.01,RA,SKC,0.64,WeatherDisplay:10.37,2013-05-19 23:54:00,
2013-05-19 19:56:00,70.0,69.1,28.92,North,0,0.0,0.0,97,0.01,,SKC,0.64,WeatherDisplay:10.37,2013-05-19 23:56:00,
2013-05-19 19:57:00,70.0,69.1,28.92,North,0,0.0,0.0,97,0.01,CLR,SKC,0.64,WeatherDisplay:10.37,2013-05-19 23:57:00,
2013-05-19 19:58:00,70.0,69.1,28.92,North,0,0.0,0.0,97,0.01,CLR,SKC,0.64,WeatherDisplay:10.37,2013-05-19 23:58:00,
2013-05-19 19:59:00,70.0,69.1,28.92,North,0,0.0,0.0,97,0.01,CLR,SKC,0.64,WeatherDisplay:10.37,2013-05-19 23:59:00,
2013-05-19 20:01:00,69.8,68.9,28.92,North,0,0.0,0.0,97,0.01,CLR,SKC,0.64,WeatherDisplay:10.37,2013-05-20 00:01:00,
2013-05-19 20:03:00,69.8,68.9,28.92,North,0,0.0,0.0,97,0.01,CLR,SKC,0.64,WeatherDisplay:10.37,2013-05-20 00:03:00,
2013-05-19 20:04:00,69.8,68.9,28.92,North,0,0.0,0.0,97,0.01,CLR,SKC,0.64,WeatherDisplay:10.37,2013-05-20 00:04:00,
2013-05-19 20:06:00,69.8,68.9,28.92,North,0,0.0,0.0,97,0.01,CLR,SKC,0.64,WeatherDisplay:10.37,2013-05-20 00:06:00,
2013-05-19 20:08:00,69.6,69.0,28.93,North,0,1.1,0.0,98,0.01,CLR,SKC,0.64,WeatherDisplay:10.37,2013-05-20 00:08:00,
2013-05-19 20:09:00,69.6,69.0,28.93,North,0,1.1,0.0,98,0.01,CLR,SKC,0.64,WeatherDisplay:10.37,2013-05-20 00:09:00,
2013-05-19 20:10:00,69.6,69.0,28.93,North,0,1.1,0.0,98,0.01,CLR,SKC,0.64,WeatherDisplay:10.37,2013-05-20 00:10:00,
2013-05-19 20:11:00,69.6,69.0,28.93,North,0,1.1,0.0,98,0.01,CLR,SKC,0.64,WeatherDisplay:10.37,2013-05-20 00:11:00,
2013-05-19 20:13:00,69.4,68.9,28.93,North,0,0.0,0.0,98,0.01,CLR,SKC,0.64,WeatherDisplay:10.37,2013-05-20 00:13:00,
2013-05-19 20:14:00,69.4,68.9,28.93,North,0,0.0,0.0,98,0.01,CLR,SKC,0.64,WeatherDisplay:10.37,2013-05-20 00:14:00,
2013-05-19 20:15:00,69.4,68.9,28.93,North,0,0.0,0.0,98,0.01,CLR,SKC,0.64,WeatherDisplay:10.37,2013-05-20 00:15:00,
2013-05-19 20:16:00,69.4,68.9,28.93,North,0,0.0,0.0,98,0.01,CLR,SKC,0.64,WeatherDisplay:10.37,2013-05-20 00:16:00,
2013-05-19 20:18:00,69.4,68.9,28.93,North,0,0.0,0.0,98,0.01,CLR,SKC,0.64,WeatherDisplay:10.37,2013-05-20 00:18:00,
2013-05-19 20:19:00,69.4,68.9,28.93,North,0,0.0,0.0,98,0.01,CLR,SKC,0.64,WeatherDisplay:10.37,2013-05-20 00:19:00,
2013-05-19 20:20:00,69.4,68.9,28.93,North,0,0.0,0.0,98,0.01,CLR,SKC,0.64,WeatherDisplay:10.37,2013-05-20 00:20:00,
2013-05-19 20:22:00,69.4,68.9,28.93,North,0,0.0,0.0,98,0.01,CLR,SKC,0.64,WeatherDisplay:10.37,2013-05-20 00:22:00,
2013-05-19 20:23:00,69.4,68.9,28.93,North,0,0.0,0.0,98,0.01,CLR,SKC,0.64,WeatherDisplay:10.37,2013-05-20 00:23:00,
2013-05-19 20:24:00,69.4,68.9,28.93,North,0,0.0,0.0,98,0.01,CLR,SKC,0.64,WeatherDisplay:10.37,2013-05-20 00:24:00,
2013-05-19 20:26:00,69.4,68.9,28.93,North,0,0.0,0.0,98,0.01,CLR,SKC,0.64,WeatherDisplay:10.37,2013-05-20 00:26:00,
2013-05-19 20:27:00,69.4,68.9,28.93,North,0,0.0,0.0,98,0.01,CLR,SKC,0.64,WeatherDisplay:10.37,2013-05-20 00:27:00,
2013-05-19 20:28:00,69.4,68.9,28.93,North,0,0.0,0.0,98,0.01,CLR,SKC,0.64,WeatherDisplay:10.37,2013-05-20 00:28:00,
2013-05-19 20:29:00,69.4,68.9,28.93,North,0,0.0,0.0,98,0.01,CLR,SKC,0.64,WeatherDisplay:10.37,2013-05-20 00:29:00,
2013-05-19 20:31:00,69.4,68.9,28.93,North,0,0.0,0.0,98,0.01,CLR,SKC,0.64,WeatherDisplay:10.37,2013-05-20 00:31:00,
2013-05-19 20:32:00,69.4,68.9,28.93,North,0,0.0,0.0,98,0.01,CLR,SKC,0.64,WeatherDisplay:10.37,2013-05-20 00:32:00,
2013-05-19 20:34:00,69.4,68.9,28.93,North,0,0.0,0.0,98,0.01,CLR,SKC,0.64,WeatherDisplay:10.37,2013-05-20 00:34:00,
2013-05-19 20:35:00,69.4,68.9,28.93,North,0,0.0,0.0,98,0.01,CLR,SKC,0.64,WeatherDisplay:10.37,2013-05-20 00:35:00,
2013-05-19 20:36:00,69.4,68.9,28.93,North,0,0.0,0.0,98,0.01,CLR,SKC,0.64,WeatherDisplay:10.37,2013-05-20 00:36:00,
2013-05-19 20:37:00,68.7,68.4,28.93,SW,225,0.0,0.0,99,0.01,CLR,SKC,0.64,WeatherDisplay:10.37,2013-05-20 00:37:00,
2013-05-19 20:39:00,68.7,68.4,28.93,SW,225,0.0,0.0,99,0.01,CLR,SKC,0.64,WeatherDisplay:10.37,2013-05-20 00:39:00,
2013-05-19 20:40:00,68.7,68.4,28.93,SW,225,0.0,0.0,99,0.01,CLR,SKC,0.64,WeatherDisplay:10.37,2013-05-20 00:40:00,
2013-05-19 20:42:00,68.7,68.4,28.93,SW,225,0.0,0.0,99,0.01,CLR,SKC,0.64,WeatherDisplay:10.37,2013-05-20 00:42:00,
2013-05-19 20:44:00,68.7,68.4,28.93,SW,225,1.1,0.0,99,0.01,CLR,SKC,0.64,WeatherDisplay:10.37,2013-05-20 00:44:00,
2013-05-19 20:45:00,68.7,68.4,28.93,West,270,1.1,0.0,99,0.00,CLR,SKC,0.64,WeatherDisplay:10.37,2013-05-20 00:45:00,
2013-05-19 20:47:00,68.7,68.4,28.94,West,270,1.1,0.0,99,0.00,CLR,SKC,0.64,WeatherDisplay:10.37,2013-05-20 00:47:00,
2013-05-19 20:49:00,68.7,68.4,28.94,West,270,1.1,0.0,99,0.00,CLR,SKC,0.64,WeatherDisplay:10.37,2013-05-20 00:49:00,
2013-05-19 20:50:00,68.7,68.4,28.94,West,270,1.1,0.0,99,0.00,CLR,SKC,0.64,WeatherDisplay:10.37,2013-05-20 00:50:00,
2013-05-19 20:52:00,68.7,68.4,28.93,West,270,1.1,0.0,99,0.00,CLR,SKC,0.64,WeatherDisplay:10.37,2013-05-20 00:52:00,
2013-05-19 20:54:00,68.5,68.2,28.94,South,180,1.1,0.0,99,0.00,CLR,SKC,0.64,WeatherDisplay:10.37,2013-05-20 00:54:00,
2013-05-19 20:55:00,68.5,68.2,28.94,South,180,1.1,0.0,99,0.00,CLR,SKC,0.64,WeatherDisplay:10.37,2013-05-20 00:55:00,
2013-05-19 20:56:00,68.5,68.2,28.94,South,180,1.1,0.0,99,0.00,CLR,SKC,0.64,WeatherDisplay:10.37,2013-05-20 00:56:00,
2013-05-19 20:57:00,68.5,68.2,28.93,South,180,0.0,0.0,99,0.00,CLR,SKC,0.64,WeatherDisplay:10.37,2013-05-20 00:57:00,
2013-05-19 20:58:00,68.5,68.2,28.94,South,180,0.0,0.0,99,0.00,CLR,SKC,0.64,WeatherDisplay:10.37,2013-05-20 00:58:00,
2013-05-19 21:00:00,68.4,68.1,28.94,North,0,0.0,0.0,99,0.00,CLR,SKC,0.64,WeatherDisplay:10.37,2013-05-20 01:00:00,
2013-05-19 21:01:00,68.4,68.1,28.94,North,0,0.0,0.0,99,0.00,CLR,SKC,0.64,WeatherDisplay:10.37,2013-05-20 01:01:00,
2013-05-19 21:02:00,68.4,68.1,28.94,North,0,0.0,0.0,99,0.00,CLR,SKC,0.64,WeatherDisplay:10.37,2013-05-20 01:02:00,
2013-05-19 21:03:00,68.4,68.1,28.94,North,0,0.0,0.0,99,0.00,CLR,SKC,0.64,WeatherDisplay:10.37,2013-05-20 01:03:00,
2013-05-19 21:05:00,68.4,68.1,28.94,North,0,0.0,0.0,99,0.00,CLR,SKC,0.64,WeatherDisplay:10.37,2013-05-20 01:05:00,
2013-05-19 21:06:00,68.4,68.1,28.93,North,0,0.0,0.0,99,0.00,CLR,SKC,0.64,WeatherDisplay:10.37,2013-05-20 01:06:00,
2013-05-19 21:08:00,68.4,68.1,28.94,North,0,0.0,0.0,99,0.00,CLR,SKC,0.64,WeatherDisplay:10.37,2013-05-20 01:08:00,
2013-05-19 21:10:00,68.4,68.1,28.94,North,0,0.0,0.0,99,0.00,CLR,SKC,0.64,WeatherDisplay:10.37,2013-05-20 01:10:00,
2013-05-19 21:11:00,68.4,68.1,28.94,North,0,0.0,0.0,99,0.00,CLR,SKC,0.64,WeatherDisplay:10.37,2013-05-20 01:11:00,
2013-05-19 21:13:00,68.4,68.1,28.94,North,0,0.0,0.0,99,0.00,CLR,SKC,0.64,WeatherDisplay:10.37,2013-05-20 01:13:00,
2013-05-19 21:15:00,68.4,68.1,28.94,North,0,0.0,0.0,99,0.00,CLR,SKC,0.64,WeatherDisplay:10.37,2013-05-20 01:15:00,
2013-05-19 21:17:00,68.2,67.9,28.93,SW,225,0.0,0.0,99,0.00,CLR,SKC,0.64,WeatherDisplay:10.37,2013-05-20 01:17:00,
2013-05-19 21:18:00,68.2,67.9,28.93,SW,225,0.0,0.0,99,0.00,CLR,SKC,0.64,WeatherDisplay:10.37,2013-05-20 01:18:00,
2013-05-19 21:19:00,68.2,67.9,28.93,SW,225,0.0,0.0,99,0.00,CLR,SKC,0.64,WeatherDisplay:10.37,2013-05-20 01:19:00,
2013-05-19 21:20:00,68.2,67.9,28.94,SW,225,0.0,0.0,99,0.00,CLR,SKC,0.64,WeatherDisplay:10.37,2013-05-20 01:20:00,
2013-05-19 21:21:00,68.2,67.9,28.94,SW,225,0.0,0.0,99,0.00,CLR,SKC,0.64,WeatherDisplay:10.37,2013-05-20 01:21:00,
2013-05-19 21:22:00,68.2,67.9,28.94,SW,225,0.0,0.0,99,0.00,CLR,SKC,0.64,WeatherDisplay:10.37,2013-05-20 01:22:00,
2013-05-19 21:23:00,68.2,67.9,28.94,SW,225,0.0,0.0,99,0.00,CLR,SKC,0.64,WeatherDisplay:10.37,2013-05-20 01:23:00,
2013-05-19 21:24:00,68.2,67.9,28.94,SW,225,0.0,0.0,99,0.00,CLR,SKC,0.64,WeatherDisplay:10.37,2013-05-20 01:24:00,
2013-05-19 21:25:00,68.2,67.9,28.94,SW,225,0.0,0.0,99,0.00,CLR,SKC,0.64,WeatherDisplay:10.37,2013-05-20 01:25:00,
2013-05-19 21:26:00,68.2,67.9,28.94,SW,225,0.0,0.0,99,0.00,CLR,SKC,0.64,WeatherDisplay:10.37,2013-05-20 01:26:00,
2013-05-19 21:28:00,68.2,67.9,28.94,North,10,0.0,0.0,99,0.00,CLR,SKC,0.64,WeatherDisplay:10.37,2013-05-20 01:28:00,
2013-05-19 21:29:00,68.2,67.9,28.94,North,10,0.0,0.0,99,0.00,CLR,SKC,0.64,WeatherDisplay:10.37,2013-05-20 01:29:00,
2013-05-19 21:31:00,68.2,67.9,28.94,NNE,13,0.0,0.0,99,0.00,CLR,SKC,0.64,WeatherDisplay:10.37,2013-05-20 01:31:00,
2013-05-19 21:33:00,68.2,67.9,28.94,North,1,0.0,0.0,99,0.00,CLR,SKC,0.64,WeatherDisplay:10.37,2013-05-20 01:33:00,
2013-05-19 21:34:00,68.2,67.9,28.94,North,1,0.0,0.0,99,0.00,CLR,SKC,0.64,WeatherDisplay:10.37,2013-05-20 01:34:00,
2013-05-19 21:36:00,68.2,67.9,28.94,North,0,0.0,0.0,99,0.00,CLR,SKC,0.64,WeatherDisplay:10.37,2013-05-20 01:36:00,
2013-05-19 21:38:00,67.8,67.5,28.94,West,270,0.0,0.0,99,0.00,CLR,SKC,0.64,WeatherDisplay:10.37,2013-05-20 01:38:00,
2013-05-19 21:39:00,67.8,67.5,28.94,West,270,0.0,0.0,99,0.00,CLR,SKC,0.64,WeatherDisplay:10.37,2013-05-20 01:39:00,
2013-05-19 21:41:00,67.8,67.5,28.94,West,270,0.0,0.0,99,0.00,CLR,SKC,0.64,WeatherDisplay:10.37,2013-05-20 01:41:00,
2013-05-19 21:42:00,67.8,67.5,28.94,West,270,0.0,0.0,99,0.00,CLR,SKC,0.64,WeatherDisplay:10.37,2013-05-20 01:42:00,
2013-05-19 21:44:00,67.8,67.5,28.94,NE,45,0.0,0.0,99,0.00,CLR,SKC,0.64,WeatherDisplay:10.37,2013-05-20 01:44:00,
2013-05-19 21:45:00,67.8,67.5,28.94,NE,45,0.0,0.0,99,0.00,CLR,SKC,0.64,WeatherDisplay:10.37,2013-05-20 01:45:00,
2013-05-19 21:46:00,67.8,67.5,28.94,NE,45,0.0,0.0,99,0.00,CLR,SKC,0.64,WeatherDisplay:10.37,2013-05-20 01:46:00,
2013-05-19 21:47:00,67.8,67.5,28.94,NE,45,0.0,0.0,99,0.00,CLR,SKC,0.64,WeatherDisplay:10.37,2013-05-20 01:47:00,
2013-05-19 21:49:00,67.8,67.5,28.94,NE,45,0.0,0.0,99,0.00,CLR,SKC,0.64,WeatherDisplay:10.37,2013-05-20 01:49:00,
2013-05-19 21:51:00,67.8,67.5,28.94,NE,45,0.0,0.0,99,0.00,CLR,SKC,0.64,WeatherDisplay:10.37,2013-05-20 01:51:00,
2013-05-19 21:52:00,67.8,67.5,28.94,NE,45,0.0,0.0,99,0.00,CLR,SKC,0.64,WeatherDisplay:10.37,2013-05-20 01:52:00,
2013-05-19 21:54:00,67.8,67.5,28.94,NE,45,0.0,0.0,99,0.00,CLR,SKC,0.64,WeatherDisplay:10.37,2013-05-20 01:54:00,
2013-05-19 21:55:00,67.8,67.5,28.94,NE,45,0.0,0.0,99,0.00,CLR,SKC,0.64,WeatherDisplay:10.37,2013-05-20 01:55:00,
2013-05-19 21:56:00,67.8,67.5,28.94,NE,45,0.0,0.0,99,0.00,CLR,SKC,0.64,WeatherDisplay:10.37,2013-05-20 01:56:00,
2013-05-19 21:57:00,67.6,67.3,28.94,North,0,0.0,0.0,99,0.00,CLR,SKC,0.64,WeatherDisplay:10.37,2013-05-20 01:57:00,
2013-05-19 21:59:00,67.6,67.3,28.95,North,0,0.0,0.0,99,0.00,CLR,SKC,0.64,WeatherDisplay:10.37,2013-05-20 01:59:00,
2013-05-19 22:00:00,67.6,67.3,28.95,North,0,0.0,0.0,99,0.00,CLR,SKC,0.64,WeatherDisplay:10.37,2013-05-20 02:00:00,
2013-05-19 22:01:00,67.6,67.3,28.95,North,0,0.0,0.0,99,0.00,CLR,SKC,0.64,WeatherDisplay:10.37,2013-05-20 02:01:00,
2013-05-19 22:02:00,67.6,67.3,28.95,North,0,0.0,0.0,99,0.00,CLR,SKC,0.64,WeatherDisplay:10.37,2013-05-20 02:02:00,
2013-05-19 22:05:00,67.6,67.3,28.95,North,0,0.0,0.0,99,0.00,CLR,SKC,0.64,WeatherDisplay:10.37,2013-05-20 02:05:00,
2013-05-19 22:06:00,67.6,67.3,28.95,North,0,0.0,0.0,99,0.00,CLR,SKC,0.64,WeatherDisplay:10.37,2013-05-20 02:06:00,
2013-05-19 22:07:00,67.6,67.3,28.95,North,0,0.0,0.0,99,0.00,CLR,SKC,0.64,WeatherDisplay:10.37,2013-05-20 02:07:00,
2013-05-19 22:10:00,67.6,67.3,28.96,North,0,0.0,0.0,99,0.00,CLR,SKC,0.64,WeatherDisplay:10.37,2013-05-20 02:10:00,
2013-05-19 22:11:00,67.6,67.3,28.96,North,0,0.0,0.0,99,0.00,CLR,SKC,0.64,WeatherDisplay:10.37,2013-05-20 02:11:00,
2013-05-19 22:12:00,67.6,67.3,28.96,North,0,0.0,0.0,99,0.00,CLR,SKC,0.64,WeatherDisplay:10.37,2013-05-20 02:12:00,
2013-05-19 22:13:00,67.6,67.3,28.96,North,0,0.0,0.0,99,0.00,CLR,SKC,0.64,WeatherDisplay:10.37,2013-05-20 02:13:00,
2013-05-19 22:15:00,67.6,67.3,28.96,North,0,0.0,0.0,99,0.00,CLR,SKC,0.64,WeatherDisplay:10.37,2013-05-20 02:15:00,
2013-05-19 22:16:00,67.6,67.3,28.96,North,0,0.0,0.0,99,0.00,CLR,SKC,0.64,WeatherDisplay:10.37,2013-05-20 02:16:00,
2013-05-19 22:17:00,67.6,67.3,28.96,North,0,0.0,0.0,99,0.00,CLR,SKC,0.64,WeatherDisplay:10.37,2013-05-20 02:17:00,
2013-05-19 22:18:00,67.6,67.3,28.96,North,0,0.0,0.0,99,0.00,CLR,SKC,0.64,WeatherDisplay:10.37,2013-05-20 02:18:00,
2013-05-19 22:21:00,67.6,67.3,28.96,North,0,0.0,0.0,99,0.00,CLR,SKC,0.64,WeatherDisplay:10.37,2013-05-20 02:21:00,
2013-05-19 22:22:00,67.6,67.3,28.96,North,0,0.0,0.0,99,0.00,CLR,SKC,0.64,WeatherDisplay:10.37,2013-05-20 02:22:00,
2013-05-19 22:23:00,67.6,67.3,28.96,North,0,0.0,0.0,99,0.00,CLR,SKC,0.64,WeatherDisplay:10.37,2013-05-20 02:23:00,
2013-05-19 22:26:00,67.6,67.3,28.96,North,0,0.0,0.0,99,0.00,CLR,SKC,0.64,WeatherDisplay:10.37,2013-05-20 02:26:00,
2013-05-19 22:27:00,67.6,67.3,28.96,North,0,0.0,0.0,99,0.00,CLR,SKC,0.64,WeatherDisplay:10.37,2013-05-20 02:27:00,
2013-05-19 22:28:00,67.6,67.3,28.97,North,0,0.0,0.0,99,0.00,CLR,SKC,0.64,WeatherDisplay:10.37,2013-05-20 02:28:00,
2013-05-19 22:31:00,67.3,67.0,28.97,SW,225,0.0,0.0,99,0.00,CLR,SKC,0.64,WeatherDisplay:10.37,2013-05-20 02:31:00,
2013-05-19 22:32:00,67.3,67.0,28.97,SW,225,0.0,0.0,99,0.00,CLR,SKC,0.64,WeatherDisplay:10.37,2013-05-20 02:32:00,
2013-05-19 22:33:00,67.3,67.0,28.97,SW,225,0.0,0.0,99,0.00,CLR,SKC,0.64,WeatherDisplay:10.37,2013-05-20 02:33:00,
2013-05-19 22:36:00,67.3,67.0,28.97,SW,225,0.0,0.0,99,0.00,CLR,SKC,0.64,WeatherDisplay:10.37,2013-05-20 02:36:00,
2013-05-19 22:37:00,67.3,67.0,28.97,SW,225,0.0,0.0,99,0.00,CLR,SKC,0.64,WeatherDisplay:10.37,2013-05-20 02:37:00,
2013-05-19 22:38:00,67.3,67.0,28.97,SW,225,0.0,0.0,99,0.00,CLR,SKC,0.64,WeatherDisplay:10.37,2013-05-20 02:38:00,
2013-05-19 22:41:00,67.3,67.0,28.97,North,10,0.0,0.0,99,0.00,CLR,SKC,0.64,WeatherDisplay:10.37,2013-05-20 02:41:00,
2013-05-19 22:42:00,67.3,67.0,28.97,North,10,0.0,0.0,99,0.00,CLR,SKC,0.64,WeatherDisplay:10.37,2013-05-20 02:42:00,
2013-05-19 22:43:00,67.3,67.0,28.97,North,10,0.0,0.0,99,0.00,CLR,SKC,0.64,WeatherDisplay:10.37,2013-05-20 02:43:00,
2013-05-19 22:44:00,67.3,67.0,28.97,NNE,13,0.0,0.0,99,0.00,CLR,SKC,0.64,WeatherDisplay:10.37,2013-05-20 02:44:00,
2013-05-19 22:47:00,67.3,67.0,28.97,North,1,0.0,0.0,99,0.00,CLR,SKC,0.64,WeatherDisplay:10.37,2013-05-20 02:47:00,
2013-05-19 22:48:00,67.3,67.0,28.97,North,1,0.0,0.0,99,0.00,CLR,SKC,0.64,WeatherDisplay:10.37,2013-05-20 02:48:00,
2013-05-19 22:49:00,67.3,67.0,28.97,North,0,0.0,0.0,99,0.00,CLR,SKC,0.64,WeatherDisplay:10.37,2013-05-20 02:49:00,
2013-05-19 22:52:00,67.3,67.0,28.97,North,0,0.0,0.0,99,0.00,CLR,SKC,0.64,WeatherDisplay:10.37,2013-05-20 02:52:00,
2013-05-19 22:53:00,67.3,67.0,28.98,North,0,0.0,0.0,99,0.00,CLR,SKC,0.64,WeatherDisplay:10.37,2013-05-20 02:53:00,
2013-05-19 22:54:00,67.3,67.0,28.98,North,0,0.0,0.0,99,0.00,CLR,SKC,0.64,WeatherDisplay:10.37,2013-05-20 02:54:00,
2013-05-19 22:57:00,67.3,67.0,28.97,North,0,0.0,0.0,99,0.00,CLR,SKC,0.64,WeatherDisplay:10.37,2013-05-20 02:57:00,
2013-05-19 22:58:00,67.3,67.0,28.97,North,0,0.0,0.0,99,0.00,CLR,SKC,0.64,WeatherDisplay:10.37,2013-05-20 02:58:00,
2013-05-19 22:59:00,67.3,67.0,28.97,North,0,0.0,0.0,99,0.00,CLR,SKC,0.64,WeatherDisplay:10.37,2013-05-20 02:59:00,
2013-05-19 23:00:00,67.3,67.0,28.97,North,0,0.0,0.0,99,0.00,CLR,SKC,0.64,WeatherDisplay:10.37,2013-05-20 03:00:00,
2013-05-19 23:03:00,67.1,66.8,28.97,SW,225,1.1,0.0,99,0.00,CLR,SKC,0.64,WeatherDisplay:10.37,2013-05-20 03:03:00,
2013-05-19 23:04:00,67.1,66.8,28.97,SW,225,1.1,0.0,99,0.00,CLR,SKC,0.64,WeatherDisplay:10.37,2013-05-20 03:04:00,
2013-05-19 23:05:00,67.1,66.8,28.97,SW,225,1.1,0.0,99,0.00,CLR,SKC,0.64,WeatherDisplay:10.37,2013-05-20 03:05:00,
2013-05-19 23:08:00,67.1,66.8,28.97,SW,225,1.1,0.0,99,0.00,CLR,SKC,0.64,WeatherDisplay:10.37,2013-05-20 03:08:00,
2013-05-19 23:09:00,67.1,66.8,28.97,SW,225,1.1,0.0,99,0.00,CLR,SKC,0.64,WeatherDisplay:10.37,2013-05-20 03:09:00,
2013-05-19 23:10:00,67.1,66.8,28.97,SW,225,1.1,0.0,99,0.00,CLR,SKC,0.64,WeatherDisplay:10.37,2013-05-20 03:10:00,
2013-05-19 23:13:00,67.1,66.8,28.97,NNE,16,1.1,0.0,99,0.00,CLR,SKC,0.64,WeatherDisplay:10.37,2013-05-20 03:13:00,
2013-05-19 23:14:00,67.1,66.8,28.97,NNE,16,1.1,0.0,99,0.00,CLR,SKC,0.64,WeatherDisplay:10.37,2013-05-20 03:14:00,
2013-05-19 23:15:00,67.1,66.8,28.97,North,0,1.1,0.0,99,0.00,CLR,SKC,0.64,WeatherDisplay:10.37,2013-05-20 03:15:00,
2013-05-19 23:18:00,67.1,66.8,28.97,North,0,1.1,0.0,99,0.00,CLR,SKC,0.64,WeatherDisplay:10.37,2013-05-20 03:18:00,
2013-05-19 23:20:00,67.1,66.8,28.97,North,0,1.1,0.0,99,0.00,CLR,SKC,0.64,WeatherDisplay:10.37,2013-05-20 03:20:00,
2013-05-19 23:21:00,67.1,66.8,28.96,North,0,1.1,0.0,99,0.00,CLR,SKC,0.64,WeatherDisplay:10.37,2013-05-20 03:21:00,
2013-05-19 23:23:00,67.1,66.8,28.97,North,0,1.1,0.0,99,0.00,CLR,SKC,0.64,WeatherDisplay:10.37,2013-05-20 03:23:00,
2013-05-19 23:25:00,67.1,66.8,28.96,North,0,1.1,0.0,99,0.00,CLR,SKC,0.64,WeatherDisplay:10.37,2013-05-20 03:25:00,
2013-05-19 23:26:00,67.1,66.8,28.97,North,0,1.1,0.0,99,0.00,CLR,SKC,0.64,WeatherDisplay:10.37,2013-05-20 03:26:00,
2013-05-19 23:28:00,67.1,66.8,28.97,North,0,1.1,0.0,99,0.00,CLR,SKC,0.64,WeatherDisplay:10.37,2013-05-20 03:28:00,
2013-05-19 23:29:00,67.1,66.8,28.97,North,0,1.1,0.0,99,0.00,CLR,SKC,0.64,WeatherDisplay:10.37,2013-05-20 03:29:00,
2013-05-19 23:30:00,67.1,66.8,28.97,North,1,0.0,2.0,99,0.00,CLR,SKC,0.64,WeatherDisplay:10.37,2013-05-20 03:30:00,
2013-05-19 23:31:00,66.9,66.6,28.97,NE,45,1.1,0.0,99,0.00,CLR,SKC,0.64,WeatherDisplay:10.37,2013-05-20 03:31:00,
2013-05-19 23:33:00,66.9,66.6,28.96,NE,45,0.0,0.0,99,0.00,CLR,SKC,0.64,WeatherDisplay:10.37,2013-05-20 03:33:00,
2013-05-19 23:34:00,66.9,66.6,28.96,NE,45,0.0,0.0,99,0.00,CLR,SKC,0.64,WeatherDisplay:10.37,2013-05-20 03:34:00,
2013-05-19 23:35:00,66.9,66.6,28.96,South,180,0.0,0.0,99,0.00,CLR,SKC,0.64,WeatherDisplay:10.37,2013-05-20 03:35:00,
2013-05-19 23:36:00,66.9,66.6,28.96,South,180,0.0,0.0,99,0.00,CLR,SKC,0.64,WeatherDisplay:10.37,2013-05-20 03:36:00,
2013-05-19 23:38:00,66.9,66.6,28.97,NNW,338,0.0,0.0,99,0.00,CLR,SKC,0.64,WeatherDisplay:10.37,2013-05-20 03:38:00,
2013-05-19 23:39:00,66.9,66.6,28.97,NNW,338,0.0,0.0,99,0.00,CLR,SKC,0.64,WeatherDisplay:10.37,2013-05-20 03:39:00,
2013-05-19 23:40:00,66.9,66.6,28.97,NNW,338,55.2,0.0,99,0.00,CLR,SKC,0.64,WeatherDisplay:10.37,2013-05-20 03:40:00,
2013-05-19 23:41:00,66.9,66.6,28.97,NNW,338,55.2,0.0,99,0.00,CLR,SKC,0.64,WeatherDisplay:10.37,2013-05-20 03:41:00,
2013-05-19 23:43:00,66.9,66.6,28.97,NNW,338,55.2,0.0,99,0.00,CLR,SKC,0.64,WeatherDisplay:10.37,2013-05-20 03:43:00,
2013-05-19 23:44:00,66.9,66.6,28.97,NNW,338,55.5,0.0,99,0.00,CLR,SKC,0.64,WeatherDisplay:10.37,2013-05-20 03:44:00,
2013-05-19 23:45:00,66.9,66.6,28.97,South,180,55.2,0.0,99,0.00,CLR,SKC,0.64,WeatherDisplay:10.37,2013-05-20 03:45:00,
2013-05-19 23:46:00,66.9,66.6,28.97,South,180,55.2,0.0,99,0.00,CLR,SKC,0.64,WeatherDisplay:10.37,2013-05-20 03:46:00,
2013-05-19 23:49:00,66.9,66.6,28.97,North,0,55.2,0.0,99,0.00,CLR,SKC,0.64,WeatherDisplay:10.37,2013-05-20 03:49:00,
2013-05-19 23:51:00,67.1,66.8,28.97,North,0,1.1,0.0,99,0.00,CLR,SKC,0.64,WeatherDisplay:10.37,2013-05-20 03:51:00,
2013-05-19 23:54:00,67.1,66.8,28.97,North,0,1.1,0.0,99,0.00,CLR,SKC,0.64,WeatherDisplay:10.37,2013-05-20 03:54:00,
2013-05-19 23:56:00,67.1,66.8,28.97,North,0,0.0,0.0,99,0.00,CLR,SKC,0.64,WeatherDisplay:10.37,2013-05-20 03:56:00,
2013-05-19 23:57:00,67.1,66.8,28.97,North,0,0.0,0.0,99,0.00,CLR,SKC,0.64,WeatherDisplay:10.37,2013-05-20 03:57:00,
2013-05-19 23:59:00,67.1,66.8,28.97,North,0,0.0,0.0,99,0.00,CLR,SKC,0.64,WeatherDisplay:10.37,2013-05-20 03:59:00,